Wetterdaten: Donnerstag, 06.10.2022
Datum Zeit Temp. Aussen Temp. o. S. Temp +5cm Feuchte Auss Luftdruck Regen Sonnenschein Regendauer Solar Windben Empfang
06.10.2022 00:00 16,7 C 15,6 C 11,1 C 89 % 1019,5 hPa 0,0 l/m 0 min 0 min 0 W/m 9,7 km/h (2 Bft) 95,65 %
06.10.2022 00:02 16,7 C 15,6 C 11,1 C 89 % 1019,6 hPa 0,0 l/m 0 min 0 min 0 W/m 12,9 km/h (3 Bft) 95,45 %
06.10.2022 00:05 16,6 C 15,6 C 11,1 C 89 % 1019,7 hPa 0,0 l/m 0 min 0 min 0 W/m 19,3 km/h (3 Bft) 98,25 %
06.10.2022 00:10 16,4 C 15,6 C 11,1 C 89 % 1019,8 hPa 0,0 l/m 0 min 0 min 0 W/m 6,4 km/h (2 Bft) 91,67 %
06.10.2022 00:12 16,4 C 15,6 C 11,1 C 89 % 1019,9 hPa 0,0 l/m 0 min 0 min 0 W/m 9,7 km/h (2 Bft) 97,83 %
06.10.2022 00:14 16,4 C 15,6 C 11,7 C 89 % 1020,0 hPa 0,0 l/m 0 min 0 min 0 W/m 19,3 km/h (3 Bft) 97,87 %
06.10.2022 00:16 16,3 C 15,6 C 11,7 C 89 % 1020,0 hPa 0,0 l/m 0 min 0 min 0 W/m 16,1 km/h (3 Bft) 95,74 %
06.10.2022 00:18 16,3 C 15,6 C 11,7 C 89 % 1020,1 hPa 0,0 l/m 0 min 0 min 0 W/m 12,9 km/h (3 Bft) 97,87 %
06.10.2022 00:20 16,3 C 15,6 C 11,7 C 89 % 1020,0 hPa 0,0 l/m 0 min 0 min 0 W/m 6,4 km/h (2 Bft) 97,87 %
06.10.2022 00:22 16,2 C 15,6 C 11,7 C 89 % 1020,1 hPa 0,0 l/m 0 min 0 min 0 W/m 16,1 km/h (3 Bft) 97,87 %
06.10.2022 00:24 16,2 C 15,6 C 11,7 C 89 % 1020,2 hPa 0,0 l/m 0 min 0 min 0 W/m 12,9 km/h (3 Bft) 97,83 %
06.10.2022 00:26 16,2 C 15,6 C 11,7 C 89 % 1020,2 hPa 0,0 l/m 0 min 0 min 0 W/m 12,9 km/h (3 Bft) 100,00 %
06.10.2022 00:28 16,2 C 15,6 C 11,7 C 89 % 1020,3 hPa 0,0 l/m 0 min 0 min 0 W/m 6,4 km/h (2 Bft) 97,87 %
06.10.2022 00:30 16,1 C 15,0 C 11,7 C 89 % 1020,4 hPa 0,0 l/m 0 min 0 min 0 W/m 16,1 km/h (3 Bft) 100,00 %
06.10.2022 00:32 16,1 C 15,0 C 11,7 C 89 % 1020,5 hPa 0,0 l/m 0 min 0 min 0 W/m 9,7 km/h (2 Bft) 100,00 %
06.10.2022 00:34 16,1 C 15,0 C 11,7 C 89 % 1020,5 hPa 0,0 l/m 0 min 0 min 0 W/m 6,4 km/h (2 Bft) 100,00 %
06.10.2022 00:36 16,1 C 15,0 C 11,7 C 88 % 1020,5 hPa 0,0 l/m 0 min 0 min 0 W/m 16,1 km/h (3 Bft) 95,65 %
06.10.2022 00:38 16,1 C 15,0 C 11,7 C 88 % 1020,5 hPa 0,0 l/m 0 min 0 min 0 W/m 16,1 km/h (3 Bft) 97,87 %
06.10.2022 00:40 16,1 C 15,6 C 11,7 C 88 % 1020,6 hPa 0,0 l/m 0 min 0 min 0 W/m 16,1 km/h (3 Bft) 100,00 %
06.10.2022 00:42 16,0 C 15,0 C 11,7 C 88 % 1020,6 hPa 0,0 l/m 0 min 0 min 0 W/m 12,9 km/h (3 Bft) 100,00 %
06.10.2022 00:44 16,0 C 15,6 C 11,7 C 88 % 1020,7 hPa 0,0 l/m 0 min 0 min 0 W/m 16,1 km/h (3 Bft) 100,00 %
06.10.2022 00:46 16,1 C 15,6 C 11,7 C 88 % 1020,7 hPa 0,0 l/m 0 min 0 min 0 W/m 19,3 km/h (3 Bft) 100,00 %
06.10.2022 00:48 16,1 C 15,6 C 11,7 C 88 % 1020,8 hPa 0,0 l/m 0 min 0 min 0 W/m 12,9 km/h (3 Bft) 97,83 %
06.10.2022 00:50 16,1 C 15,6 C 11,7 C 88 % 1020,9 hPa 0,0 l/m 0 min 0 min 0 W/m 22,5 km/h (4 Bft) 97,87 %
06.10.2022 00:52 16,1 C 15,6 C 11,7 C 88 % 1021,3 hPa 0,0 l/m 0 min 0 min 0 W/m 51,5 km/h (7 Bft) 97,87 %
06.10.2022 00:54 15,9 C 13,9 C 10,6 C 87 % 1021,5 hPa 0,4 l/m 0 min 2 min 0 W/m 51,5 km/h (7 Bft) 97,87 %
06.10.2022 00:56 15,5 C 13,3 C 9,4 C 87 % 1021,6 hPa 0,2 l/m 0 min 2 min 0 W/m 16,1 km/h (3 Bft) 97,87 %
06.10.2022 00:58 15,0 C 12,8 C 8,9 C 88 % 1021,7 hPa 0,0 l/m 0 min 2 min 0 W/m 22,5 km/h (4 Bft) 97,87 %
06.10.2022 01:00 14,6 C 12,8 C 8,9 C 88 % 1021,7 hPa 0,0 l/m 0 min 2 min 0 W/m 35,4 km/h (5 Bft) 95,65 %
06.10.2022 01:02 14,3 C 12,8 C 8,9 C 89 % 1021,6 hPa 0,2 l/m 0 min 2 min 0 W/m 22,5 km/h (4 Bft) 97,87 %
06.10.2022 01:04 14,1 C 12,2 C 8,9 C 89 % 1021,6 hPa 0,0 l/m 0 min 2 min 0 W/m 19,3 km/h (3 Bft) 97,87 %
06.10.2022 01:06 13,9 C 12,2 C 8,9 C 90 % 1021,8 hPa 0,0 l/m 0 min 0 min 0 W/m 16,1 km/h (3 Bft) 97,87 %
06.10.2022 01:08 13,7 C 12,2 C 8,9 C 90 % 1021,8 hPa 0,0 l/m 0 min 0 min 0 W/m 25,7 km/h (4 Bft) 97,87 %
06.10.2022 01:10 13,6 C 12,2 C 8,3 C 91 % 1022,0 hPa 0,0 l/m 0 min 0 min 0 W/m 22,5 km/h (4 Bft) 97,87 %
06.10.2022 01:12 13,5 C 12,2 C 8,3 C 91 % 1021,9 hPa 0,0 l/m 0 min 2 min 0 W/m 22,5 km/h (4 Bft) 95,65 %
06.10.2022 01:14 13,4 C 12,2 C 8,3 C 91 % 1021,9 hPa 0,0 l/m 0 min 2 min 0 W/m 19,3 km/h (3 Bft) 97,87 %
06.10.2022 01:16 13,3 C 12,2 C 8,3 C 92 % 1021,9 hPa 0,0 l/m 0 min 0 min 0 W/m 19,3 km/h (3 Bft) 95,74 %
06.10.2022 01:18 13,3 C 12,2 C 8,3 C 92 % 1022,0 hPa 0,0 l/m 0 min 2 min 0 W/m 16,1 km/h (3 Bft) 97,87 %
06.10.2022 01:20 13,2 C 12,2 C 8,3 C 92 % 1022,0 hPa 0,0 l/m 0 min 2 min 0 W/m 16,1 km/h (3 Bft) 97,87 %
06.10.2022 01:22 13,2 C 12,2 C 8,3 C 92 % 1021,9 hPa 0,0 l/m 0 min 0 min 0 W/m 19,3 km/h (3 Bft) 97,87 %
06.10.2022 01:24 13,1 C 12,2 C 8,3 C 92 % 1021,9 hPa 0,0 l/m 0 min 0 min 0 W/m 19,3 km/h (3 Bft) 97,83 %
06.10.2022 01:26 13,1 C 12,2 C 8,3 C 92 % 1021,9 hPa 0,0 l/m 0 min 2 min 0 W/m 12,9 km/h (3 Bft) 97,87 %
06.10.2022 01:28 13,1 C 12,2 C 8,3 C 92 % 1021,9 hPa 0,0 l/m 0 min 0 min 0 W/m 9,7 km/h (2 Bft) 97,87 %
06.10.2022 01:30 13,0 C 12,2 C 8,3 C 92 % 1021,9 hPa 0,0 l/m 0 min 0 min 0 W/m 12,9 km/h (3 Bft) 100,00 %
06.10.2022 01:32 13,0 C 12,2 C 8,3 C 92 % 1021,9 hPa 0,0 l/m 0 min 0 min 0 W/m 12,9 km/h (3 Bft) 100,00 %
06.10.2022 01:34 13,0 C 12,2 C 8,3 C 92 % 1021,9 hPa 0,0 l/m 0 min 0 min 0 W/m 9,7 km/h (2 Bft) 100,00 %
06.10.2022 01:36 13,0 C 12,2 C 8,3 C 92 % 1021,9 hPa 0,0 l/m 0 min 0 min 0 W/m 6,4 km/h (2 Bft) 97,83 %
06.10.2022 01:38 13,0 C 12,2 C 8,3 C 92 % 1022,0 hPa 0,0 l/m 0 min 0 min 0 W/m 12,9 km/h (3 Bft) 100,00 %
06.10.2022 01:40 13,0 C 12,2 C 8,3 C 92 % 1022,0 hPa 0,0 l/m 0 min 0 min 0 W/m 9,7 km/h (2 Bft) 100,00 %
06.10.2022 01:42 13,0 C 12,2 C 8,3 C 92 % 1021,9 hPa 0,0 l/m 0 min 0 min 0 W/m 6,4 km/h (2 Bft) 100,00 %
06.10.2022 01:44 13,0 C 12,2 C 8,3 C 92 % 1022,0 hPa 0,0 l/m 0 min 0 min 0 W/m 12,9 km/h (3 Bft) 95,74 %
06.10.2022 01:46 13,0 C 12,2 C 8,3 C 92 % 1022,0 hPa 0,0 l/m 0 min 0 min 0 W/m 12,9 km/h (3 Bft) 97,83 %
06.10.2022 01:48 13,0 C 12,2 C 8,3 C 92 % 1022,1 hPa 0,0 l/m 0 min 0 min 0 W/m 6,4 km/h (2 Bft) 97,87 %
06.10.2022 01:50 13,1 C 12,2 C 8,3 C 92 % 1022,2 hPa 0,0 l/m 0 min 0 min 0 W/m 6,4 km/h (2 Bft) 97,87 %
06.10.2022 01:52 13,1 C 12,2 C 8,3 C 92 % 1022,2 hPa 0,0 l/m 0 min 0 min 0 W/m 12,9 km/h (3 Bft) 97,87 %
06.10.2022 01:54 13,1 C 12,2 C 8,3 C 92 % 1022,2 hPa 0,0 l/m 0 min 0 min 0 W/m 6,4 km/h (2 Bft) 97,87 %
06.10.2022 01:56 13,1 C 12,2 C 8,3 C 92 % 1022,3 hPa 0,0 l/m 0 min 0 min 0 W/m 12,9 km/h (3 Bft) 97,87 %
06.10.2022 01:58 13,1 C 12,2 C 8,3 C 93 % 1022,3 hPa 0,0 l/m 0 min 0 min 0 W/m 6,4 km/h (2 Bft) 97,83 %
06.10.2022 02:00 13,1 C 12,2 C 8,3 C 93 % 1022,4 hPa 0,0 l/m 0 min 0 min 0 W/m 6,4 km/h (2 Bft) 97,87 %
06.10.2022 02:02 13,1 C 12,2 C 8,3 C 93 % 1022,4 hPa 0,0 l/m 0 min 0 min 0 W/m 6,4 km/h (2 Bft) 95,74 %
06.10.2022 02:04 13,1 C 12,2 C 8,9 C 93 % 1022,5 hPa 0,0 l/m 0 min 0 min 0 W/m 6,4 km/h (2 Bft) 97,87 %
06.10.2022 02:06 13,1 C 12,2 C 8,3 C 93 % 1022,5 hPa 0,0 l/m 0 min 0 min 0 W/m 6,4 km/h (2 Bft) 97,87 %
06.10.2022 02:08 13,1 C 12,2 C 8,3 C 93 % 1022,5 hPa 0,0 l/m 0 min 0 min 0 W/m 6,4 km/h (2 Bft) 97,87 %
06.10.2022 02:10 13,1 C 12,2 C 8,3 C 93 % 1022,6 hPa 0,0 l/m 0 min 0 min 0 W/m 6,4 km/h (2 Bft) 97,83 %
06.10.2022 02:14 13,1 C 12,2 C 8,3 C 93 % 1022,7 hPa 0,0 l/m 0 min 0 min 0 W/m 12,9 km/h (3 Bft) 100,00 %
06.10.2022 02:16 13,1 C 12,2 C 8,3 C 93 % 1022,7 hPa 0,0 l/m 0 min 0 min 0 W/m 6,4 km/h (2 Bft) 97,87 %
06.10.2022 02:18 13,1 C 12,2 C 8,3 C 93 % 1022,7 hPa 0,0 l/m 0 min 0 min 0 W/m 6,4 km/h (2 Bft) 97,87 %
06.10.2022 02:20 13,1 C 12,2 C 8,3 C 93 % 1022,8 hPa 0,0 l/m 0 min 0 min 0 W/m 3,2 km/h (1 Bft) 97,87 %
06.10.2022 02:22 13,1 C 12,2 C 8,3 C 93 % 1022,8 hPa 0,0 l/m 0 min 0 min 0 W/m 3,2 km/h (1 Bft) 100,00 %
06.10.2022 02:24 13,1 C 12,2 C 8,3 C 93 % 1022,8 hPa 0,0 l/m 0 min 0 min 0 W/m 3,2 km/h (1 Bft) 100,00 %
06.10.2022 02:26 13,1 C 12,2 C 8,3 C 93 % 1022,8 hPa 0,0 l/m 0 min 0 min 0 W/m 6,4 km/h (2 Bft) 100,00 %
06.10.2022 02:28 13,1 C 12,2 C 8,3 C 93 % 1022,9 hPa 0,0 l/m 0 min 0 min 0 W/m 6,4 km/h (2 Bft) 100,00 %
06.10.2022 02:30 13,1 C 12,2 C 8,3 C 93 % 1022,9 hPa 0,0 l/m 0 min 0 min 0 W/m 3,2 km/h (1 Bft) 97,87 %
06.10.2022 02:32 13,1 C 12,2 C 8,3 C 94 % 1022,9 hPa 0,0 l/m 0 min 0 min 0 W/m 6,4 km/h (2 Bft) 93,62 %
06.10.2022 02:34 13,1 C 12,2 C 8,3 C 94 % 1023,0 hPa 0,0 l/m 0 min 0 min 0 W/m 6,4 km/h (2 Bft) 97,83 %
06.10.2022 02:36 13,1 C 12,2 C 8,3 C 94 % 1023,1 hPa 0,0 l/m 0 min 0 min 0 W/m 3,2 km/h (1 Bft) 97,87 %
06.10.2022 02:38 13,0 C 12,2 C 8,3 C 94 % 1023,1 hPa 0,0 l/m 0 min 0 min 0 W/m 3,2 km/h (1 Bft) 95,74 %
06.10.2022 02:40 13,0 C 12,2 C 8,3 C 94 % 1023,1 hPa 0,0 l/m 0 min 0 min 0 W/m 6,4 km/h (2 Bft) 97,87 %
06.10.2022 02:42 13,0 C 12,2 C 8,3 C 94 % 1023,2 hPa 0,0 l/m 0 min 0 min 0 W/m 6,4 km/h (2 Bft) 95,74 %
06.10.2022 02:44 12,9 C 12,2 C 8,3 C 94 % 1023,2 hPa 0,0 l/m 0 min 0 min 0 W/m 6,4 km/h (2 Bft) 97,87 %
06.10.2022 02:46 12,9 C 12,2 C 8,3 C 94 % 1023,2 hPa 0,0 l/m 0 min 0 min 0 W/m 9,7 km/h (2 Bft) 95,74 %
06.10.2022 02:48 12,9 C 12,2 C 8,3 C 94 % 1023,3 hPa 0,0 l/m 0 min 0 min 0 W/m 9,7 km/h (2 Bft) 95,65 %
06.10.2022 02:50 12,9 C 12,2 C 8,3 C 94 % 1023,3 hPa 0,0 l/m 0 min 0 min 0 W/m 6,4 km/h (2 Bft) 95,74 %
06.10.2022 02:52 12,9 C 12,2 C 8,3 C 94 % 1023,3 hPa 0,0 l/m 0 min 0 min 0 W/m 6,4 km/h (2 Bft) 97,87 %
06.10.2022 02:54 12,9 C 12,2 C 8,3 C 94 % 1023,3 hPa 0,0 l/m 0 min 0 min 0 W/m 6,4 km/h (2 Bft) 97,87 %
06.10.2022 02:56 12,9 C 12,2 C 8,3 C 94 % 1023,3 hPa 0,0 l/m 0 min 0 min 0 W/m 3,2 km/h (1 Bft) 93,62 %
06.10.2022 02:58 12,9 C 12,2 C 8,3 C 95 % 1023,3 hPa 0,0 l/m 0 min 0 min 0 W/m 6,4 km/h (2 Bft) 95,65 %
06.10.2022 03:00 12,9 C 12,2 C 8,3 C 95 % 1023,4 hPa 0,2 l/m 0 min 0 min 0 W/m 3,2 km/h (1 Bft) 97,87 %
06.10.2022 03:02 12,9 C 11,7 C 8,3 C 95 % 1023,4 hPa 0,0 l/m 0 min 0 min 0 W/m 3,2 km/h (1 Bft) 97,87 %
06.10.2022 03:04 12,9 C 11,7 C 8,3 C 95 % 1023,4 hPa 0,0 l/m 0 min 0 min 0 W/m 3,2 km/h (1 Bft) 97,87 %
06.10.2022 03:06 12,8 C 11,7 C 8,3 C 95 % 1023,4 hPa 0,0 l/m 0 min 0 min 0 W/m 3,2 km/h (1 Bft) 93,62 %
06.10.2022 03:08 12,8 C 11,7 C 8,3 C 95 % 1023,4 hPa 0,0 l/m 0 min 0 min 0 W/m 6,4 km/h (2 Bft) 97,87 %
06.10.2022 03:10 12,8 C 11,7 C 8,3 C 95 % 1023,5 hPa 0,0 l/m 0 min 0 min 0 W/m 6,4 km/h (2 Bft) 97,87 %
06.10.2022 03:12 12,8 C 12,2 C 8,3 C 95 % 1023,5 hPa 0,0 l/m 0 min 0 min 0 W/m 6,4 km/h (2 Bft) 95,65 %
06.10.2022 03:14 12,8 C 12,2 C 8,9 C 95 % 1023,6 hPa 0,0 l/m 0 min 0 min 0 W/m 9,7 km/h (2 Bft) 97,87 %
06.10.2022 03:16 12,8 C 12,2 C 8,9 C 95 % 1023,5 hPa 0,0 l/m 0 min 0 min 0 W/m 6,4 km/h (2 Bft) 95,74 %
06.10.2022 03:18 12,8 C 12,2 C 8,9 C 95 % 1023,6 hPa 0,0 l/m 0 min 0 min 0 W/m 12,9 km/h (3 Bft) 93,62 %
06.10.2022 03:20 12,8 C 12,2 C 8,3 C 95 % 1023,7 hPa 0,0 l/m 0 min 0 min 0 W/m 3,2 km/h (1 Bft) 93,62 %
06.10.2022 03:22 12,8 C 12,2 C 8,3 C 95 % 1023,7 hPa 0,0 l/m 0 min 0 min 0 W/m 9,7 km/h (2 Bft) 95,65 %
06.10.2022 03:24 12,8 C 12,2 C 8,3 C 95 % 1023,7 hPa 0,0 l/m 0 min 0 min 0 W/m 6,4 km/h (2 Bft) 93,62 %
06.10.2022 03:26 12,8 C 12,2 C 8,3 C 95 % 1023,8 hPa 0,0 l/m 0 min 0 min 0 W/m 9,7 km/h (2 Bft) 95,74 %
06.10.2022 03:28 12,8 C 12,2 C 8,3 C 95 % 1023,8 hPa 0,0 l/m 0 min 0 min 0 W/m 6,4 km/h (2 Bft) 93,62 %
06.10.2022 03:30 12,8 C 12,2 C 8,3 C 95 % 1023,8 hPa 0,0 l/m 0 min 0 min 0 W/m 9,7 km/h (2 Bft) 95,74 %
06.10.2022 03:32 12,8 C 12,2 C 8,3 C 95 % 1023,8 hPa 0,0 l/m 0 min 0 min 0 W/m 6,4 km/h (2 Bft) 95,74 %
06.10.2022 03:34 12,8 C 12,2 C 8,3 C 95 % 1023,8 hPa 0,0 l/m 0 min 0 min 0 W/m 9,7 km/h (2 Bft) 93,48 %
06.10.2022 03:36 12,7 C 12,2 C 8,3 C 95 % 1023,8 hPa 0,0 l/m 0 min 0 min 0 W/m 9,7 km/h (2 Bft) 95,74 %
06.10.2022 03:38 12,7 C 12,2 C 8,3 C 95 % 1023,8 hPa 0,0 l/m 0 min 0 min 0 W/m 12,9 km/h (3 Bft) 95,74 %
06.10.2022 03:40 12,7 C 12,2 C 8,3 C 95 % 1023,9 hPa 0,0 l/m 0 min 0 min 0 W/m 16,1 km/h (3 Bft) 93,62 %
06.10.2022 03:42 12,7 C 12,2 C 8,3 C 95 % 1023,9 hPa 0,0 l/m 0 min 0 min 0 W/m 6,4 km/h (2 Bft) 93,62 %
06.10.2022 03:44 12,7 C 12,2 C 8,3 C 95 % 1023,9 hPa 0,0 l/m 0 min 0 min 0 W/m 9,7 km/h (2 Bft) 95,74 %
06.10.2022 03:46 12,7 C 12,2 C 8,3 C 95 % 1023,9 hPa 0,0 l/m 0 min 0 min 0 W/m 6,4 km/h (2 Bft) 95,74 %
06.10.2022 03:48 12,7 C 12,2 C 8,3 C 95 % 1023,9 hPa 0,0 l/m 0 min 0 min 0 W/m 16,1 km/h (3 Bft) 93,48 %
06.10.2022 03:50 12,7 C 12,2 C 8,3 C 95 % 1023,9 hPa 0,0 l/m 0 min 0 min 0 W/m 6,4 km/h (2 Bft) 95,74 %
06.10.2022 03:52 12,7 C 12,2 C 8,3 C 94 % 1023,9 hPa 0,0 l/m 0 min 0 min 0 W/m 12,9 km/h (3 Bft) 95,74 %
06.10.2022 03:54 12,6 C 12,2 C 8,3 C 94 % 1023,9 hPa 0,0 l/m 0 min 0 min 0 W/m 9,7 km/h (2 Bft) 97,87 %
06.10.2022 03:56 12,6 C 12,2 C 8,3 C 94 % 1024,0 hPa 0,0 l/m 0 min 0 min 0 W/m 6,4 km/h (2 Bft) 97,87 %
06.10.2022 03:58 12,6 C 12,2 C 8,3 C 94 % 1023,9 hPa 0,0 l/m 0 min 0 min 0 W/m 6,4 km/h (2 Bft) 100,00 %
06.10.2022 04:00 12,6 C 11,7 C 8,3 C 94 % 1023,9 hPa 0,0 l/m 0 min 0 min 0 W/m 9,7 km/h (2 Bft) 100,00 %
06.10.2022 04:02 12,6 C 11,7 C 8,3 C 94 % 1024,0 hPa 0,0 l/m 0 min 0 min 0 W/m 3,2 km/h (1 Bft) 100,00 %
06.10.2022 04:04 12,6 C 11,7 C 8,3 C 94 % 1024,1 hPa 0,0 l/m 0 min 0 min 0 W/m 3,2 km/h (1 Bft) 100,00 %
06.10.2022 04:06 12,6 C 11,7 C 8,3 C 94 % 1024,1 hPa 0,0 l/m 0 min 0 min 0 W/m 3,2 km/h (1 Bft) 97,87 %
06.10.2022 04:08 12,6 C 11,7 C 8,3 C 94 % 1024,1 hPa 0,0 l/m 0 min 0 min 0 W/m 6,4 km/h (2 Bft) 100,00 %
06.10.2022 04:10 12,6 C 11,7 C 8,3 C 94 % 1024,1 hPa 0,0 l/m 0 min 0 min 0 W/m 3,2 km/h (1 Bft) 100,00 %
06.10.2022 04:12 12,6 C 11,7 C 8,3 C 94 % 1024,1 hPa 0,0 l/m 0 min 0 min 0 W/m 3,2 km/h (1 Bft) 100,00 %
06.10.2022 04:14 12,6 C 11,7 C 8,3 C 94 % 1024,2 hPa 0,0 l/m 0 min 0 min 0 W/m 3,2 km/h (1 Bft) 100,00 %
06.10.2022 04:16 12,6 C 11,7 C 8,3 C 94 % 1024,2 hPa 0,0 l/m 0 min 0 min 0 W/m 6,4 km/h (2 Bft) 97,87 %
06.10.2022 04:18 12,5 C 11,7 C 8,3 C 94 % 1024,2 hPa 0,0 l/m 0 min 0 min 0 W/m 3,2 km/h (1 Bft) 100,00 %
06.10.2022 04:20 12,5 C 11,7 C 8,3 C 94 % 1024,3 hPa 0,0 l/m 0 min 0 min 0 W/m 6,4 km/h (2 Bft) 100,00 %
06.10.2022 04:22 12,5 C 11,7 C 8,3 C 94 % 1024,3 hPa 0,0 l/m 0 min 0 min 0 W/m 3,2 km/h (1 Bft) 100,00 %
06.10.2022 04:24 12,4 C 11,7 C 8,3 C 94 % 1024,3 hPa 0,0 l/m 0 min 0 min 0 W/m 3,2 km/h (1 Bft) 100,00 %
06.10.2022 04:26 12,4 C 11,7 C 8,3 C 94 % 1024,4 hPa 0,0 l/m 0 min 0 min 0 W/m 6,4 km/h (2 Bft) 100,00 %
06.10.2022 04:28 12,4 C 11,7 C 8,3 C 94 % 1024,4 hPa 0,0 l/m 0 min 0 min 0 W/m 6,4 km/h (2 Bft) 97,87 %
06.10.2022 04:30 12,4 C 11,7 C 8,3 C 94 % 1024,4 hPa 0,0 l/m 0 min 0 min 0 W/m 12,9 km/h (3 Bft) 100,00 %
06.10.2022 04:32 12,4 C 11,7 C 8,3 C 94 % 1024,4 hPa 0,0 l/m 0 min 0 min 0 W/m 6,4 km/h (2 Bft) 100,00 %
06.10.2022 04:34 12,4 C 11,7 C 8,3 C 94 % 1024,4 hPa 0,0 l/m 0 min 0 min 0 W/m 6,4 km/h (2 Bft) 100,00 %
06.10.2022 04:36 12,4 C 11,7 C 8,3 C 94 % 1024,5 hPa 0,0 l/m 0 min 0 min 0 W/m 6,4 km/h (2 Bft) 97,87 %
06.10.2022 04:38 12,4 C 11,7 C 8,3 C 94 % 1024,5 hPa 0,0 l/m 0 min 0 min 0 W/m 3,2 km/h (1 Bft) 89,36 %
06.10.2022 04:40 12,4 C 11,7 C 8,3 C 94 % 1024,5 hPa 0,0 l/m 0 min 0 min 0 W/m 6,4 km/h (2 Bft) 65,91 %
06.10.2022 04:42 12,3 C 11,7 C 8,3 C 94 % 1024,5 hPa 0,0 l/m 0 min 0 min 0 W/m 6,4 km/h (2 Bft) 97,87 %
06.10.2022 04:44 12,3 C 11,7 C 8,3 C 94 % 1024,6 hPa 0,0 l/m 0 min 0 min 0 W/m 3,2 km/h (1 Bft) 100,00 %
06.10.2022 04:46 12,3 C 11,7 C 8,3 C 94 % 1024,7 hPa 0,0 l/m 0 min 0 min 0 W/m 3,2 km/h (1 Bft) 100,00 %
06.10.2022 04:48 12,3 C 11,7 C 8,3 C 94 % 1024,7 hPa 0,0 l/m 0 min 0 min 0 W/m 6,4 km/h (2 Bft) 100,00 %
06.10.2022 04:50 12,3 C 11,7 C 8,3 C 94 % 1024,7 hPa 0,0 l/m 0 min 0 min 0 W/m 6,4 km/h (2 Bft) 100,00 %
06.10.2022 04:52 12,3 C 11,7 C 8,3 C 94 % 1024,7 hPa 0,0 l/m 0 min 0 min 0 W/m 9,7 km/h (2 Bft) 100,00 %
06.10.2022 04:54 12,3 C 11,7 C 8,3 C 94 % 1024,8 hPa 0,0 l/m 0 min 0 min 0 W/m 6,4 km/h (2 Bft) 98,04 %
06.10.2022 04:56 12,3 C 11,7 C 8,3 C 94 % 1024,7 hPa 0,0 l/m 0 min 0 min 0 W/m 6,4 km/h (2 Bft) 100,00 %
06.10.2022 04:58 12,3 C 11,7 C 8,3 C 94 % 1024,8 hPa 0,0 l/m 0 min 0 min 0 W/m 6,4 km/h (2 Bft) 100,00 %
06.10.2022 05:00 12,3 C 11,7 C 8,3 C 94 % 1024,8 hPa 0,0 l/m 0 min 0 min 0 W/m 12,9 km/h (3 Bft) 100,00 %
06.10.2022 05:02 12,3 C 11,7 C 8,3 C 94 % 1024,8 hPa 0,0 l/m 0 min 0 min 0 W/m 12,9 km/h (3 Bft) 97,87 %
06.10.2022 05:04 12,2 C 11,7 C 8,3 C 94 % 1024,9 hPa 0,0 l/m 0 min 0 min 0 W/m 9,7 km/h (2 Bft) 97,87 %
06.10.2022 05:06 12,2 C 11,7 C 8,3 C 94 % 1024,9 hPa 0,0 l/m 0 min 0 min 0 W/m 12,9 km/h (3 Bft) 100,00 %
06.10.2022 05:08 12,2 C 11,7 C 8,3 C 94 % 1024,9 hPa 0,0 l/m 0 min 0 min 0 W/m 6,4 km/h (2 Bft) 100,00 %
06.10.2022 05:10 12,2 C 11,7 C 8,3 C 94 % 1024,9 hPa 0,0 l/m 0 min 0 min 0 W/m 12,9 km/h (3 Bft) 97,87 %
06.10.2022 05:12 12,2 C 11,7 C 8,3 C 94 % 1025,0 hPa 0,0 l/m 0 min 0 min 0 W/m 6,4 km/h (2 Bft) 97,87 %
06.10.2022 05:14 12,2 C 11,7 C 8,3 C 94 % 1025,0 hPa 0,0 l/m 0 min 0 min 0 W/m 12,9 km/h (3 Bft) 97,87 %
06.10.2022 05:16 12,2 C 11,7 C 8,3 C 94 % 1025,0 hPa 0,0 l/m 0 min 0 min 0 W/m 12,9 km/h (3 Bft) 95,74 %
06.10.2022 05:18 12,2 C 11,7 C 8,3 C 93 % 1025,1 hPa 0,0 l/m 0 min 0 min 0 W/m 12,9 km/h (3 Bft) 97,83 %
06.10.2022 05:20 12,1 C 11,7 C 8,3 C 93 % 1025,1 hPa 0,0 l/m 0 min 0 min 0 W/m 6,4 km/h (2 Bft) 97,87 %
06.10.2022 05:22 12,1 C 11,7 C 8,3 C 93 % 1025,2 hPa 0,0 l/m 0 min 0 min 0 W/m 12,9 km/h (3 Bft) 97,87 %
06.10.2022 05:24 12,1 C 11,1 C 8,3 C 93 % 1025,2 hPa 0,0 l/m 0 min 0 min 0 W/m 6,4 km/h (2 Bft) 93,62 %
06.10.2022 05:26 12,1 C 11,1 C 8,3 C 93 % 1025,2 hPa 0,0 l/m 0 min 0 min 0 W/m 6,4 km/h (2 Bft) 97,87 %
06.10.2022 05:28 12,1 C 11,1 C 8,3 C 93 % 1025,2 hPa 0,0 l/m 0 min 0 min 0 W/m 6,4 km/h (2 Bft) 97,87 %
06.10.2022 05:30 12,0 C 11,1 C 8,3 C 93 % 1025,2 hPa 0,0 l/m 0 min 0 min 0 W/m 9,7 km/h (2 Bft) 97,83 %
06.10.2022 05:32 12,0 C 11,1 C 8,3 C 93 % 1025,3 hPa 0,0 l/m 0 min 0 min 0 W/m 6,4 km/h (2 Bft) 95,74 %
06.10.2022 05:34 12,0 C 11,1 C 8,3 C 93 % 1025,3 hPa 0,0 l/m 0 min 0 min 0 W/m 3,2 km/h (1 Bft) 93,62 %
06.10.2022 05:36 11,9 C 11,1 C 7,8 C 93 % 1025,4 hPa 0,0 l/m 0 min 0 min 0 W/m 3,2 km/h (1 Bft) 95,74 %
06.10.2022 05:38 11,9 C 11,1 C 7,8 C 93 % 1025,4 hPa 0,0 l/m 0 min 0 min 0 W/m 6,4 km/h (2 Bft) 95,74 %
06.10.2022 05:40 11,9 C 11,1 C 7,8 C 93 % 1025,5 hPa 0,0 l/m 0 min 0 min 0 W/m 6,4 km/h (2 Bft) 97,87 %
06.10.2022 05:42 11,9 C 11,1 C 7,8 C 93 % 1025,5 hPa 0,0 l/m 0 min 0 min 0 W/m 12,9 km/h (3 Bft) 97,83 %
06.10.2022 05:44 11,8 C 11,1 C 7,8 C 93 % 1025,6 hPa 0,0 l/m 0 min 0 min 0 W/m 6,4 km/h (2 Bft) 97,87 %
06.10.2022 05:46 11,8 C 11,1 C 7,8 C 93 % 1025,6 hPa 0,0 l/m 0 min 0 min 0 W/m 6,4 km/h (2 Bft) 97,87 %
06.10.2022 05:48 11,8 C 11,1 C 7,8 C 93 % 1025,7 hPa 0,0 l/m 0 min 0 min 0 W/m 12,9 km/h (3 Bft) 95,74 %
06.10.2022 05:50 11,8 C 11,1 C 7,8 C 93 % 1025,7 hPa 0,0 l/m 0 min 0 min 0 W/m 6,4 km/h (2 Bft) 95,74 %
06.10.2022 05:52 11,8 C 11,1 C 7,8 C 93 % 1025,7 hPa 0,0 l/m 0 min 0 min 0 W/m 12,9 km/h (3 Bft) 97,87 %
06.10.2022 05:54 11,8 C 11,1 C 7,8 C 93 % 1025,8 hPa 0,0 l/m 0 min 0 min 0 W/m 6,4 km/h (2 Bft) 97,83 %
06.10.2022 05:56 11,7 C 11,1 C 7,8 C 93 % 1025,8 hPa 0,0 l/m 0 min 0 min 0 W/m 6,4 km/h (2 Bft) 95,74 %
06.10.2022 05:58 11,7 C 11,1 C 7,8 C 93 % 1025,8 hPa 0,0 l/m 0 min 0 min 0 W/m 6,4 km/h (2 Bft) 93,62 %
06.10.2022 06:00 11,7 C 11,1 C 7,8 C 93 % 1025,8 hPa 0,0 l/m 0 min 0 min 0 W/m 6,4 km/h (2 Bft) 93,62 %
06.10.2022 06:02 11,7 C 11,1 C 7,8 C 93 % 1025,8 hPa 0,0 l/m 0 min 0 min 0 W/m 16,1 km/h (3 Bft) 95,74 %
06.10.2022 06:04 11,7 C 11,1 C 7,8 C 93 % 1025,9 hPa 0,0 l/m 0 min 0 min 0 W/m 12,9 km/h (3 Bft) 95,74 %
06.10.2022 06:08 11,6 C 11,1 C 7,8 C 92 % 1026,1 hPa 0,0 l/m 0 min 0 min 0 W/m 12,9 km/h (3 Bft) 95,74 %
06.10.2022 06:10 11,6 C 11,1 C 7,8 C 92 % 1026,1 hPa 0,0 l/m 0 min 0 min 0 W/m 6,4 km/h (2 Bft) 95,74 %
06.10.2022 06:12 11,6 C 11,1 C 7,8 C 92 % 1026,1 hPa 0,0 l/m 0 min 0 min 0 W/m 6,4 km/h (2 Bft) 95,74 %
06.10.2022 06:14 11,6 C 11,1 C 7,8 C 92 % 1026,1 hPa 0,0 l/m 0 min 0 min 0 W/m 6,4 km/h (2 Bft) 95,74 %
06.10.2022 06:16 11,6 C 11,1 C 7,8 C 92 % 1026,1 hPa 0,0 l/m 0 min 0 min 0 W/m 9,7 km/h (2 Bft) 97,87 %
06.10.2022 06:18 11,6 C 11,1 C 7,8 C 92 % 1026,2 hPa 0,0 l/m 0 min 0 min 0 W/m 9,7 km/h (2 Bft) 97,87 %
06.10.2022 06:20 11,6 C 10,6 C 7,8 C 92 % 1026,2 hPa 0,0 l/m 0 min 0 min 0 W/m 16,1 km/h (3 Bft) 97,83 %
06.10.2022 06:22 11,6 C 10,6 C 7,8 C 92 % 1026,2 hPa 0,0 l/m 0 min 0 min 0 W/m 12,9 km/h (3 Bft) 97,62 %
06.10.2022 06:24 11,6 C 10,6 C 7,8 C 92 % 1026,3 hPa 0,0 l/m 0 min 0 min 0 W/m 12,9 km/h (3 Bft) 97,87 %
06.10.2022 06:26 11,5 C 10,6 C 7,8 C 92 % 1026,3 hPa 0,0 l/m 0 min 0 min 0 W/m 12,9 km/h (3 Bft) 97,87 %
06.10.2022 06:28 11,5 C 10,6 C 7,8 C 92 % 1026,3 hPa 0,0 l/m 0 min 0 min 0 W/m 9,7 km/h (2 Bft) 97,87 %
06.10.2022 06:30 11,5 C 10,6 C 7,8 C 92 % 1026,3 hPa 0,0 l/m 0 min 0 min 0 W/m 16,1 km/h (3 Bft) 97,83 %
06.10.2022 06:32 11,4 C 10,6 C 7,8 C 91 % 1026,3 hPa 0,0 l/m 0 min 0 min 0 W/m 12,9 km/h (3 Bft) 97,87 %
06.10.2022 06:34 11,4 C 10,6 C 7,8 C 91 % 1026,3 hPa 0,0 l/m 0 min 0 min 0 W/m 6,4 km/h (2 Bft) 95,74 %
06.10.2022 06:36 11,4 C 10,6 C 7,8 C 91 % 1026,5 hPa 0,0 l/m 0 min 0 min 0 W/m 6,4 km/h (2 Bft) 98,31 %
06.10.2022 06:38 11,4 C 10,6 C 7,8 C 91 % 1026,4 hPa 0,0 l/m 0 min 0 min 0 W/m 6,4 km/h (2 Bft) 94,29 %
06.10.2022 06:40 11,3 C 10,6 C 7,8 C 91 % 1026,4 hPa 0,0 l/m 0 min 0 min 0 W/m 12,9 km/h (3 Bft) 97,87 %
06.10.2022 06:42 11,3 C 10,6 C 7,2 C 91 % 1026,4 hPa 0,0 l/m 0 min 0 min 0 W/m 6,4 km/h (2 Bft) 97,83 %
06.10.2022 06:44 11,3 C 10,6 C 7,2 C 91 % 1026,4 hPa 0,0 l/m 0 min 0 min 0 W/m 6,4 km/h (2 Bft) 97,87 %
06.10.2022 06:46 11,3 C 10,6 C 7,2 C 91 % 1026,5 hPa 0,0 l/m 0 min 0 min 0 W/m 6,4 km/h (2 Bft) 95,74 %
06.10.2022 06:48 11,3 C 10,6 C 7,2 C 91 % 1026,5 hPa 0,0 l/m 0 min 0 min 0 W/m 6,4 km/h (2 Bft) 97,87 %
06.10.2022 06:50 11,2 C 10,6 C 7,2 C 91 % 1026,6 hPa 0,0 l/m 0 min 0 min 0 W/m 6,4 km/h (2 Bft) 97,87 %
06.10.2022 06:52 11,2 C 10,6 C 7,2 C 91 % 1026,6 hPa 0,0 l/m 0 min 0 min 0 W/m 6,4 km/h (2 Bft) 93,62 %
06.10.2022 06:54 11,2 C 10,6 C 7,2 C 91 % 1026,6 hPa 0,0 l/m 0 min 0 min 0 W/m 6,4 km/h (2 Bft) 95,65 %
06.10.2022 06:56 11,1 C 10,0 C 7,2 C 91 % 1026,7 hPa 0,0 l/m 0 min 0 min 0 W/m 9,7 km/h (2 Bft) 97,87 %
06.10.2022 06:58 11,1 C 10,0 C 7,2 C 91 % 1026,7 hPa 0,0 l/m 0 min 0 min 0 W/m 6,4 km/h (2 Bft) 97,87 %
06.10.2022 07:00 11,1 C 10,6 C 7,2 C 91 % 1026,8 hPa 0,0 l/m 0 min 0 min 0 W/m 9,7 km/h (2 Bft) 97,87 %
06.10.2022 07:02 11,1 C 10,0 C 7,2 C 91 % 1026,8 hPa 0,0 l/m 0 min 0 min 0 W/m 12,9 km/h (3 Bft) 97,87 %
06.10.2022 07:04 11,1 C 10,6 C 7,2 C 91 % 1026,8 hPa 0,0 l/m 0 min 0 min 0 W/m 12,9 km/h (3 Bft) 97,87 %
06.10.2022 07:06 11,1 C 10,0 C 7,2 C 91 % 1026,8 hPa 0,0 l/m 0 min 0 min 0 W/m 6,4 km/h (2 Bft) 98,28 %
06.10.2022 07:08 11,0 C 10,0 C 7,2 C 91 % 1026,8 hPa 0,0 l/m 0 min 0 min 0 W/m 9,7 km/h (2 Bft) 97,14 %
06.10.2022 07:10 11,0 C 10,0 C 7,2 C 91 % 1026,9 hPa 0,0 l/m 0 min 0 min 0 W/m 6,4 km/h (2 Bft) 97,87 %
06.10.2022 07:12 11,0 C 10,0 C 7,2 C 91 % 1026,9 hPa 0,0 l/m 0 min 0 min 0 W/m 6,4 km/h (2 Bft) 95,74 %
06.10.2022 07:14 10,9 C 10,0 C 7,2 C 91 % 1027,0 hPa 0,0 l/m 0 min 0 min 0 W/m 6,4 km/h (2 Bft) 97,87 %
06.10.2022 07:16 10,9 C 10,0 C 7,2 C 91 % 1027,0 hPa 0,0 l/m 0 min 0 min 0 W/m 3,2 km/h (1 Bft) 95,74 %
06.10.2022 07:18 10,9 C 10,0 C 7,2 C 91 % 1027,0 hPa 0,0 l/m 0 min 0 min 0 W/m 6,4 km/h (2 Bft) 95,65 %
06.10.2022 07:20 10,9 C 10,0 C 7,2 C 91 % 1027,1 hPa 0,0 l/m 0 min 0 min 0 W/m 6,4 km/h (2 Bft) 97,87 %
06.10.2022 07:22 10,9 C 10,0 C 7,2 C 91 % 1027,1 hPa 0,0 l/m 0 min 0 min 0 W/m 6,4 km/h (2 Bft) 100,00 %
06.10.2022 07:24 10,9 C 10,0 C 7,2 C 91 % 1027,2 hPa 0,0 l/m 0 min 0 min 0 W/m 9,7 km/h (2 Bft) 100,00 %
06.10.2022 07:26 10,8 C 10,0 C 7,2 C 91 % 1027,2 hPa 0,0 l/m 0 min 0 min 0 W/m 3,2 km/h (1 Bft) 97,87 %
06.10.2022 07:28 10,8 C 10,0 C 7,2 C 91 % 1027,2 hPa 0,0 l/m 0 min 0 min 0 W/m 6,4 km/h (2 Bft) 97,87 %
06.10.2022 07:30 10,8 C 10,0 C 7,2 C 91 % 1027,2 hPa 0,0 l/m 0 min 0 min 0 W/m 6,4 km/h (2 Bft) 100,00 %
06.10.2022 07:32 10,8 C 10,0 C 7,2 C 91 % 1027,2 hPa 0,0 l/m 0 min 0 min 0 W/m 3,2 km/h (1 Bft) 100,00 %
06.10.2022 07:34 10,8 C 10,0 C 7,2 C 91 % 1027,3 hPa 0,0 l/m 0 min 0 min 0 W/m 6,4 km/h (2 Bft) 100,00 %
06.10.2022 07:36 10,7 C 10,0 C 6,7 C 91 % 1027,3 hPa 0,0 l/m 0 min 0 min 0 W/m 3,2 km/h (1 Bft) 100,00 %
06.10.2022 07:38 10,7 C 10,0 C 6,7 C 91 % 1027,4 hPa 0,0 l/m 0 min 0 min 0 W/m 9,7 km/h (2 Bft) 100,00 %
06.10.2022 07:40 10,7 C 10,0 C 6,7 C 91 % 1027,4 hPa 0,0 l/m 0 min 0 min 0 W/m 6,4 km/h (2 Bft) 100,00 %
06.10.2022 07:42 10,7 C 10,0 C 6,7 C 91 % 1027,4 hPa 0,0 l/m 0 min 0 min 0 W/m 6,4 km/h (2 Bft) 97,83 %
06.10.2022 07:44 10,6 C 10,0 C 6,7 C 91 % 1027,4 hPa 0,0 l/m 0 min 0 min 0 W/m 3,2 km/h (1 Bft) 100,00 %
06.10.2022 07:46 10,6 C 10,0 C 7,2 C 91 % 1027,4 hPa 0,0 l/m 0 min 0 min 2 W/m 3,2 km/h (1 Bft) 100,00 %
06.10.2022 07:48 10,6 C 10,0 C 6,7 C 91 % 1027,5 hPa 0,0 l/m 0 min 0 min 5 W/m 6,4 km/h (2 Bft) 100,00 %
06.10.2022 07:50 10,6 C 9,4 C 6,7 C 91 % 1027,5 hPa 0,0 l/m 0 min 0 min 5 W/m 3,2 km/h (1 Bft) 97,87 %
06.10.2022 07:52 10,6 C 10,0 C 6,7 C 91 % 1027,6 hPa 0,0 l/m 0 min 0 min 6 W/m 6,4 km/h (2 Bft) 100,00 %
06.10.2022 07:54 10,6 C 10,0 C 6,7 C 91 % 1027,7 hPa 0,0 l/m 0 min 0 min 7 W/m 6,4 km/h (2 Bft) 97,83 %
06.10.2022 07:56 10,6 C 10,0 C 6,7 C 92 % 1027,7 hPa 0,0 l/m 0 min 0 min 7 W/m 0,0 km/h (0 Bft) 97,87 %
06.10.2022 07:58 10,5 C 10,0 C 6,7 C 92 % 1027,7 hPa 0,0 l/m 0 min 0 min 7 W/m 0,0 km/h (0 Bft) 97,87 %
06.10.2022 08:00 10,5 C 10,0 C 6,7 C 92 % 1027,7 hPa 0,0 l/m 0 min 0 min 8 W/m 0,0 km/h (0 Bft) 97,87 %
06.10.2022 08:02 10,5 C 10,0 C 6,7 C 92 % 1027,7 hPa 0,0 l/m 0 min 0 min 10 W/m 0,0 km/h (0 Bft) 95,74 %
06.10.2022 08:04 10,5 C 9,4 C 6,7 C 92 % 1027,8 hPa 0,0 l/m 0 min 0 min 11 W/m 0,0 km/h (0 Bft) 97,87 %
06.10.2022 08:06 10,5 C 10,0 C 6,7 C 92 % 1027,8 hPa 0,0 l/m 0 min 0 min 12 W/m 6,4 km/h (2 Bft) 98,28 %
06.10.2022 08:08 10,4 C 10,0 C 6,7 C 92 % 1027,8 hPa 0,0 l/m 0 min 0 min 12 W/m 6,4 km/h (2 Bft) 97,14 %
06.10.2022 08:10 10,4 C 10,0 C 6,7 C 92 % 1027,9 hPa 0,0 l/m 0 min 0 min 13 W/m 6,4 km/h (2 Bft) 97,87 %
06.10.2022 08:12 10,4 C 10,0 C 6,7 C 92 % 1027,9 hPa 0,0 l/m 0 min 0 min 14 W/m 6,4 km/h (2 Bft) 97,87 %
06.10.2022 08:14 10,4 C 9,4 C 6,7 C 92 % 1027,9 hPa 0,0 l/m 0 min 0 min 14 W/m 6,4 km/h (2 Bft) 97,87 %
06.10.2022 08:16 10,4 C 9,4 C 6,7 C 92 % 1027,9 hPa 0,0 l/m 0 min 0 min 15 W/m 6,4 km/h (2 Bft) 95,74 %
06.10.2022 08:18 10,4 C 9,4 C 6,7 C 92 % 1028,0 hPa 0,0 l/m 0 min 0 min 16 W/m 3,2 km/h (1 Bft) 93,48 %
06.10.2022 08:20 10,4 C 9,4 C 6,7 C 92 % 1028,0 hPa 0,0 l/m 0 min 0 min 16 W/m 6,4 km/h (2 Bft) 97,87 %
06.10.2022 08:22 10,4 C 10,0 C 6,7 C 92 % 1028,0 hPa 0,0 l/m 0 min 0 min 16 W/m 3,2 km/h (1 Bft) 97,87 %
06.10.2022 08:24 10,4 C 10,0 C 6,7 C 92 % 1028,0 hPa 0,0 l/m 0 min 0 min 16 W/m 6,4 km/h (2 Bft) 97,87 %
06.10.2022 08:26 10,4 C 10,0 C 6,7 C 92 % 1028,1 hPa 0,0 l/m 0 min 0 min 18 W/m 6,4 km/h (2 Bft) 97,87 %
06.10.2022 08:28 10,4 C 10,0 C 6,7 C 92 % 1028,1 hPa 0,0 l/m 0 min 0 min 19 W/m 3,2 km/h (1 Bft) 97,87 %
06.10.2022 08:30 10,4 C 10,0 C 6,7 C 92 % 1028,1 hPa 0,0 l/m 0 min 0 min 19 W/m 6,4 km/h (2 Bft) 97,83 %
06.10.2022 08:32 10,4 C 10,0 C 6,7 C 92 % 1028,1 hPa 0,0 l/m 0 min 0 min 19 W/m 3,2 km/h (1 Bft) 95,74 %
06.10.2022 08:34 10,4 C 10,0 C 6,7 C 92 % 1028,1 hPa 0,0 l/m 0 min 0 min 19 W/m 6,4 km/h (2 Bft) 97,87 %
06.10.2022 08:36 10,4 C 10,0 C 6,7 C 92 % 1028,1 hPa 0,0 l/m 0 min 0 min 20 W/m 6,4 km/h (2 Bft) 96,61 %
06.10.2022 08:38 10,4 C 10,0 C 6,7 C 92 % 1028,2 hPa 0,0 l/m 0 min 0 min 21 W/m 6,4 km/h (2 Bft) 100,00 %
06.10.2022 08:40 10,4 C 10,0 C 6,7 C 92 % 1028,2 hPa 0,0 l/m 0 min 0 min 23 W/m 6,4 km/h (2 Bft) 97,87 %
06.10.2022 08:42 10,4 C 10,0 C 6,7 C 92 % 1028,2 hPa 0,0 l/m 0 min 0 min 23 W/m 6,4 km/h (2 Bft) 97,83 %
06.10.2022 08:44 10,4 C 10,0 C 6,7 C 92 % 1028,2 hPa 0,0 l/m 0 min 0 min 24 W/m 3,2 km/h (1 Bft) 97,87 %
06.10.2022 08:46 10,4 C 10,0 C 7,2 C 92 % 1028,3 hPa 0,0 l/m 0 min 0 min 23 W/m 6,4 km/h (2 Bft) 95,74 %
06.10.2022 08:48 10,5 C 10,0 C 7,2 C 92 % 1028,3 hPa 0,0 l/m 0 min 0 min 25 W/m 6,4 km/h (2 Bft) 97,92 %
06.10.2022 08:50 10,5 C 10,0 C 7,2 C 92 % 1028,3 hPa 0,0 l/m 0 min 0 min 25 W/m 6,4 km/h (2 Bft) 95,74 %
06.10.2022 08:52 10,5 C 10,0 C 7,2 C 92 % 1028,4 hPa 0,0 l/m 0 min 0 min 26 W/m 6,4 km/h (2 Bft) 97,83 %
06.10.2022 08:54 10,6 C 10,0 C 7,2 C 92 % 1028,4 hPa 0,0 l/m 0 min 0 min 26 W/m 3,2 km/h (1 Bft) 97,87 %
06.10.2022 08:56 10,6 C 10,0 C 7,2 C 92 % 1028,4 hPa 0,0 l/m 0 min 0 min 27 W/m 6,4 km/h (2 Bft) 95,74 %
06.10.2022 08:58 10,6 C 10,0 C 7,2 C 92 % 1028,5 hPa 0,0 l/m 0 min 0 min 28 W/m 9,7 km/h (2 Bft) 95,74 %
06.10.2022 09:00 10,6 C 10,0 C 7,2 C 92 % 1028,5 hPa 0,0 l/m 0 min 0 min 28 W/m 6,4 km/h (2 Bft) 100,00 %
06.10.2022 09:02 10,7 C 10,6 C 7,2 C 92 % 1028,5 hPa 0,0 l/m 0 min 0 min 30 W/m 3,2 km/h (1 Bft) 100,00 %
06.10.2022 09:04 10,7 C 10,6 C 7,2 C 92 % 1028,6 hPa 0,0 l/m 0 min 0 min 30 W/m 12,9 km/h (3 Bft) 100,00 %
06.10.2022 09:06 10,7 C 10,6 C 7,2 C 92 % 1028,7 hPa 0,0 l/m 0 min 0 min 31 W/m 6,4 km/h (2 Bft) 100,00 %
06.10.2022 09:08 10,8 C 10,6 C 7,2 C 92 % 1028,7 hPa 0,0 l/m 0 min 0 min 32 W/m 12,9 km/h (3 Bft) 100,00 %
06.10.2022 09:10 10,8 C 10,6 C 7,2 C 92 % 1028,8 hPa 0,0 l/m 0 min 0 min 33 W/m 6,4 km/h (2 Bft) 100,00 %
06.10.2022 09:12 10,9 C 10,6 C 7,2 C 91 % 1028,8 hPa 0,0 l/m 0 min 0 min 33 W/m 12,9 km/h (3 Bft) 100,00 %
06.10.2022 09:14 10,9 C 10,6 C 7,2 C 91 % 1028,8 hPa 0,0 l/m 0 min 0 min 33 W/m 12,9 km/h (3 Bft) 100,00 %
06.10.2022 09:16 10,9 C 10,6 C 7,2 C 91 % 1028,9 hPa 0,0 l/m 0 min 0 min 33 W/m 6,4 km/h (2 Bft) 97,83 %
06.10.2022 09:18 11,0 C 10,6 C 7,2 C 91 % 1028,9 hPa 0,0 l/m 0 min 0 min 34 W/m 9,7 km/h (2 Bft) 100,00 %
06.10.2022 09:20 11,1 C 10,6 C 7,8 C 91 % 1029,0 hPa 0,0 l/m 0 min 0 min 35 W/m 6,4 km/h (2 Bft) 100,00 %
06.10.2022 09:22 11,1 C 10,6 C 7,8 C 91 % 1029,0 hPa 0,0 l/m 0 min 0 min 35 W/m 12,9 km/h (3 Bft) 97,87 %
06.10.2022 09:24 11,1 C 11,1 C 7,8 C 91 % 1029,0 hPa 0,0 l/m 0 min 0 min 37 W/m 16,1 km/h (3 Bft) 100,00 %
06.10.2022 09:26 11,2 C 11,1 C 7,8 C 90 % 1029,1 hPa 0,0 l/m 0 min 0 min 38 W/m 12,9 km/h (3 Bft) 97,96 %
06.10.2022 09:28 11,2 C 11,1 C 7,8 C 90 % 1029,1 hPa 0,0 l/m 0 min 0 min 37 W/m 12,9 km/h (3 Bft) 97,83 %
06.10.2022 09:30 11,3 C 11,1 C 7,8 C 90 % 1029,1 hPa 0,0 l/m 0 min 0 min 40 W/m 12,9 km/h (3 Bft) 97,87 %
06.10.2022 09:32 11,3 C 11,1 C 7,8 C 90 % 1029,2 hPa 0,0 l/m 0 min 0 min 39 W/m 9,7 km/h (2 Bft) 95,74 %
06.10.2022 09:34 11,4 C 11,1 C 7,8 C 90 % 1029,2 hPa 0,0 l/m 0 min 0 min 39 W/m 12,9 km/h (3 Bft) 95,74 %
06.10.2022 09:36 11,4 C 11,1 C 7,8 C 90 % 1029,2 hPa 0,0 l/m 0 min 0 min 39 W/m 19,3 km/h (3 Bft) 97,87 %
06.10.2022 09:38 11,4 C 11,1 C 7,8 C 90 % 1029,2 hPa 0,0 l/m 0 min 0 min 39 W/m 6,4 km/h (2 Bft) 95,74 %
06.10.2022 09:40 11,5 C 11,1 C 7,8 C 90 % 1029,3 hPa 0,0 l/m 0 min 0 min 40 W/m 6,4 km/h (2 Bft) 97,83 %
06.10.2022 09:42 11,6 C 11,1 C 7,8 C 90 % 1029,3 hPa 0,0 l/m 0 min 0 min 50 W/m 12,9 km/h (3 Bft) 97,87 %
06.10.2022 09:44 11,6 C 11,1 C 7,8 C 89 % 1029,3 hPa 0,0 l/m 0 min 0 min 63 W/m 3,2 km/h (1 Bft) 95,74 %
06.10.2022 09:46 11,6 C 11,7 C 7,8 C 89 % 1029,4 hPa 0,0 l/m 0 min 0 min 64 W/m 12,9 km/h (3 Bft) 97,87 %
06.10.2022 09:48 11,7 C 11,7 C 7,8 C 89 % 1029,4 hPa 0,0 l/m 0 min 0 min 45 W/m 12,9 km/h (3 Bft) 97,87 %
06.10.2022 09:50 11,7 C 11,7 C 8,3 C 89 % 1029,4 hPa 0,0 l/m 0 min 0 min 42 W/m 6,4 km/h (2 Bft) 93,62 %
06.10.2022 09:52 11,8 C 11,7 C 8,3 C 89 % 1029,4 hPa 0,0 l/m 0 min 0 min 42 W/m 9,7 km/h (2 Bft) 97,83 %
06.10.2022 09:54 11,8 C 11,7 C 8,3 C 89 % 1029,5 hPa 0,0 l/m 0 min 0 min 42 W/m 6,4 km/h (2 Bft) 95,74 %
06.10.2022 09:56 11,8 C 11,7 C 8,3 C 89 % 1029,5 hPa 0,0 l/m 0 min 0 min 42 W/m 16,1 km/h (3 Bft) 95,74 %
06.10.2022 09:58 11,9 C 11,7 C 8,3 C 88 % 1029,5 hPa 0,0 l/m 0 min 0 min 44 W/m 6,4 km/h (2 Bft) 97,87 %
06.10.2022 10:00 11,9 C 11,7 C 8,3 C 88 % 1029,6 hPa 0,0 l/m 0 min 0 min 44 W/m 12,9 km/h (3 Bft) 95,74 %
06.10.2022 10:02 12,0 C 11,7 C 8,3 C 88 % 1029,6 hPa 0,0 l/m 0 min 0 min 44 W/m 12,9 km/h (3 Bft) 97,83 %
06.10.2022 10:04 12,1 C 11,7 C 8,3 C 88 % 1029,6 hPa 0,0 l/m 0 min 0 min 44 W/m 19,3 km/h (3 Bft) 97,87 %
06.10.2022 10:06 12,1 C 11,7 C 8,3 C 88 % 1029,6 hPa 0,0 l/m 0 min 0 min 44 W/m 16,1 km/h (3 Bft) 97,87 %
06.10.2022 10:08 12,2 C 12,2 C 8,3 C 88 % 1029,6 hPa 0,0 l/m 0 min 0 min 44 W/m 9,7 km/h (2 Bft) 95,74 %
06.10.2022 10:10 12,2 C 12,2 C 8,3 C 88 % 1029,6 hPa 0,0 l/m 0 min 0 min 44 W/m 12,9 km/h (3 Bft) 97,87 %
06.10.2022 10:12 12,3 C 12,2 C 8,3 C 88 % 1029,6 hPa 0,0 l/m 0 min 0 min 44 W/m 6,4 km/h (2 Bft) 97,87 %
06.10.2022 10:14 12,3 C 12,2 C 8,9 C 88 % 1029,7 hPa 0,0 l/m 0 min 0 min 44 W/m 9,7 km/h (2 Bft) 97,87 %
06.10.2022 10:16 12,4 C 12,2 C 8,9 C 88 % 1029,7 hPa 0,0 l/m 0 min 0 min 44 W/m 12,9 km/h (3 Bft) 97,83 %
06.10.2022 10:18 12,4 C 12,2 C 8,9 C 87 % 1029,7 hPa 0,0 l/m 0 min 0 min 45 W/m 6,4 km/h (2 Bft) 97,87 %
06.10.2022 10:20 12,5 C 12,2 C 8,9 C 87 % 1029,8 hPa 0,0 l/m 0 min 0 min 46 W/m 6,4 km/h (2 Bft) 97,87 %
06.10.2022 10:22 12,6 C 12,2 C 8,9 C 87 % 1029,8 hPa 0,0 l/m 0 min 0 min 46 W/m 12,9 km/h (3 Bft) 95,74 %
06.10.2022 10:24 12,6 C 12,2 C 8,9 C 87 % 1029,8 hPa 0,0 l/m 0 min 0 min 53 W/m 12,9 km/h (3 Bft) 95,74 %
06.10.2022 10:26 12,6 C 12,2 C 8,9 C 87 % 1029,8 hPa 0,0 l/m 0 min 0 min 49 W/m 12,9 km/h (3 Bft) 93,62 %
06.10.2022 10:28 12,7 C 12,2 C 8,9 C 87 % 1029,8 hPa 0,0 l/m 0 min 0 min 63 W/m 12,9 km/h (3 Bft) 93,48 %
06.10.2022 10:30 12,7 C 12,8 C 8,9 C 86 % 1029,9 hPa 0,0 l/m 0 min 0 min 55 W/m 16,1 km/h (3 Bft) 91,49 %
06.10.2022 10:32 12,8 C 12,8 C 8,9 C 86 % 1029,9 hPa 0,0 l/m 0 min 0 min 77 W/m 12,9 km/h (3 Bft) 95,74 %
06.10.2022 10:34 12,8 C 12,8 C 8,9 C 86 % 1029,9 hPa 0,0 l/m 0 min 0 min 73 W/m 16,1 km/h (3 Bft) 95,74 %
06.10.2022 10:36 12,9 C 12,8 C 8,9 C 86 % 1029,9 hPa 0,0 l/m 0 min 0 min 131 W/m 12,9 km/h (3 Bft) 93,62 %
06.10.2022 10:38 12,9 C 12,8 C 8,9 C 86 % 1029,9 hPa 0,0 l/m 2 min 0 min 208 W/m 12,9 km/h (3 Bft) 95,65 %
06.10.2022 10:40 13,0 C 12,8 C 9,4 C 85 % 1030,0 hPa 0,0 l/m 0 min 0 min 182 W/m 9,7 km/h (2 Bft) 93,62 %
06.10.2022 10:42 13,0 C 12,8 C 9,4 C 85 % 1030,0 hPa 0,0 l/m 0 min 0 min 186 W/m 12,9 km/h (3 Bft) 95,74 %
06.10.2022 10:44 13,1 C 12,8 C 9,4 C 85 % 1030,0 hPa 0,0 l/m 2 min 0 min 255 W/m 6,4 km/h (2 Bft) 95,74 %
06.10.2022 10:46 13,1 C 12,8 C 9,4 C 85 % 1030,0 hPa 0,0 l/m 0 min 0 min 109 W/m 12,9 km/h (3 Bft) 95,74 %
06.10.2022 10:48 13,2 C 12,8 C 9,4 C 85 % 1029,9 hPa 0,0 l/m 0 min 0 min 89 W/m 12,9 km/h (3 Bft) 95,74 %
06.10.2022 10:50 13,2 C 13,3 C 9,4 C 85 % 1030,0 hPa 0,0 l/m 0 min 0 min 65 W/m 12,9 km/h (3 Bft) 95,74 %
06.10.2022 10:52 13,3 C 13,3 C 9,4 C 85 % 1030,0 hPa 0,0 l/m 0 min 0 min 49 W/m 9,7 km/h (2 Bft) 95,65 %
06.10.2022 10:54 13,3 C 13,3 C 10,0 C 85 % 1030,0 hPa 0,0 l/m 0 min 0 min 50 W/m 9,7 km/h (2 Bft) 97,87 %
06.10.2022 10:56 13,4 C 13,9 C 10,6 C 85 % 1030,0 hPa 0,0 l/m 0 min 0 min 52 W/m 9,7 km/h (2 Bft) 97,87 %
06.10.2022 10:58 13,5 C 13,9 C 10,6 C 85 % 1030,1 hPa 0,0 l/m 0 min 0 min 52 W/m 16,1 km/h (3 Bft) 97,87 %
06.10.2022 11:00 13,6 C 14,4 C 10,6 C 85 % 1030,1 hPa 0,0 l/m 0 min 0 min 54 W/m 12,9 km/h (3 Bft) 95,74 %
06.10.2022 11:02 13,6 C 15,0 C 10,6 C 85 % 1030,1 hPa 0,0 l/m 0 min 0 min 58 W/m 16,1 km/h (3 Bft) 97,83 %
06.10.2022 11:04 13,7 C 16,1 C 11,1 C 84 % 1030,2 hPa 0,0 l/m 0 min 0 min 89 W/m 6,4 km/h (2 Bft) 97,87 %
06.10.2022 11:06 13,7 C 16,7 C 11,7 C 84 % 1030,2 hPa 0,0 l/m 0 min 0 min 145 W/m 9,7 km/h (2 Bft) 97,87 %
06.10.2022 11:08 13,8 C 17,8 C 11,7 C 84 % 1030,3 hPa 0,0 l/m 0 min 0 min 83 W/m 12,9 km/h (3 Bft) 100,00 %
06.10.2022 11:10 13,9 C 17,2 C 11,7 C 84 % 1030,2 hPa 0,0 l/m 0 min 0 min 114 W/m 6,4 km/h (2 Bft) 100,00 %
06.10.2022 11:12 13,9 C 16,7 C 12,2 C 83 % 1030,2 hPa 0,0 l/m 2 min 0 min 306 W/m 9,7 km/h (2 Bft) 100,00 %
06.10.2022 11:14 14,1 C 16,7 C 12,8 C 83 % 1030,3 hPa 0,0 l/m 2 min 0 min 294 W/m 12,9 km/h (3 Bft) 100,00 %
06.10.2022 11:16 14,1 C 16,7 C 13,9 C 83 % 1030,3 hPa 0,0 l/m 0 min 0 min 208 W/m 12,9 km/h (3 Bft) 100,00 %
06.10.2022 11:18 14,2 C 17,2 C 14,4 C 82 % 1030,3 hPa 0,0 l/m 2 min 0 min 285 W/m 6,4 km/h (2 Bft) 100,00 %
06.10.2022 11:20 14,3 C 17,2 C 15,6 C 83 % 1030,4 hPa 0,0 l/m 2 min 0 min 375 W/m 6,4 km/h (2 Bft) 100,00 %
06.10.2022 11:22 14,3 C 18,3 C 16,1 C 82 % 1030,4 hPa 0,0 l/m 2 min 0 min 357 W/m 12,9 km/h (3 Bft) 100,00 %
06.10.2022 11:24 14,3 C 17,8 C 16,7 C 82 % 1030,4 hPa 0,0 l/m 2 min 0 min 407 W/m 9,7 km/h (2 Bft) 100,00 %
06.10.2022 11:26 14,3 C 18,3 C 16,7 C 82 % 1030,5 hPa 0,0 l/m 2 min 0 min 392 W/m 12,9 km/h (3 Bft) 100,00 %
06.10.2022 11:28 14,4 C 18,9 C 16,7 C 81 % 1030,5 hPa 0,0 l/m 2 min 0 min 253 W/m 16,1 km/h (3 Bft) 100,00 %
06.10.2022 11:30 14,5 C 20,0 C 17,2 C 81 % 1030,4 hPa 0,0 l/m 0 min 0 min 198 W/m 12,9 km/h (3 Bft) 100,00 %
06.10.2022 11:32 14,6 C 20,6 C 17,2 C 81 % 1030,5 hPa 0,0 l/m 0 min 0 min 208 W/m 12,9 km/h (3 Bft) 100,00 %
06.10.2022 11:34 14,7 C 22,2 C 17,8 C 80 % 1030,5 hPa 0,0 l/m 0 min 0 min 172 W/m 16,1 km/h (3 Bft) 100,00 %
06.10.2022 11:36 14,7 C 22,8 C 18,3 C 81 % 1030,6 hPa 0,0 l/m 0 min 0 min 71 W/m 3,2 km/h (1 Bft) 100,00 %
06.10.2022 11:38 14,8 C 23,9 C 18,9 C 81 % 1030,6 hPa 0,0 l/m 0 min 0 min 137 W/m 3,2 km/h (1 Bft) 97,83 %
06.10.2022 11:40 14,9 C 24,4 C 18,9 C 81 % 1030,6 hPa 0,0 l/m 0 min 0 min 149 W/m 9,7 km/h (2 Bft) 100,00 %
06.10.2022 11:42 15,1 C 25,0 C 19,4 C 80 % 1030,6 hPa 0,0 l/m 2 min 0 min 353 W/m 6,4 km/h (2 Bft) 100,00 %
06.10.2022 11:44 15,1 C 25,0 C 19,4 C 80 % 1030,6 hPa 0,0 l/m 2 min 0 min 515 W/m 6,4 km/h (2 Bft) 100,00 %
06.10.2022 11:46 15,2 C 24,4 C 18,9 C 80 % 1030,6 hPa 0,0 l/m 2 min 0 min 526 W/m 9,7 km/h (2 Bft) 100,00 %
06.10.2022 11:48 15,2 C 23,3 C 18,3 C 79 % 1030,7 hPa 0,0 l/m 2 min 0 min 540 W/m 12,9 km/h (3 Bft) 100,00 %
06.10.2022 11:50 15,2 C 23,3 C 18,3 C 78 % 1030,6 hPa 0,0 l/m 2 min 0 min 541 W/m 19,3 km/h (3 Bft) 100,00 %
06.10.2022 11:52 15,2 C 23,9 C 17,8 C 78 % 1030,6 hPa 0,0 l/m 2 min 0 min 462 W/m 16,1 km/h (3 Bft) 97,87 %
06.10.2022 11:54 15,3 C 23,9 C 17,2 C 78 % 1030,7 hPa 0,0 l/m 2 min 0 min 358 W/m 12,9 km/h (3 Bft) 100,00 %
06.10.2022 11:56 15,3 C 22,8 C 16,7 C 78 % 1030,7 hPa 0,0 l/m 2 min 0 min 429 W/m 9,7 km/h (2 Bft) 100,00 %
06.10.2022 11:58 15,3 C 22,2 C 16,1 C 77 % 1030,7 hPa 0,0 l/m 2 min 0 min 334 W/m 9,7 km/h (2 Bft) 97,87 %
06.10.2022 12:00 15,3 C 19,4 C 15,0 C 77 % 1030,7 hPa 0,0 l/m 2 min 0 min 350 W/m 12,9 km/h (3 Bft) 100,00 %
06.10.2022 12:02 15,4 C 18,3 C 14,4 C 77 % 1030,7 hPa 0,0 l/m 2 min 0 min 311 W/m 22,5 km/h (4 Bft) 100,00 %
06.10.2022 12:04 15,4 C 17,8 C 13,9 C 77 % 1030,7 hPa 0,0 l/m 2 min 0 min 352 W/m 12,9 km/h (3 Bft) 100,00 %
06.10.2022 12:08 15,5 C 17,8 C 12,8 C 75 % 1030,7 hPa 0,0 l/m 0 min 0 min 248 W/m 19,3 km/h (3 Bft) 100,00 %
06.10.2022 12:10 15,6 C 17,2 C 12,8 C 75 % 1030,7 hPa 0,0 l/m 0 min 0 min 165 W/m 12,9 km/h (3 Bft) 100,00 %
06.10.2022 12:12 15,6 C 17,2 C 12,2 C 75 % 1030,7 hPa 0,0 l/m 0 min 0 min 83 W/m 9,7 km/h (2 Bft) 100,00 %
06.10.2022 12:14 15,6 C 16,7 C 12,2 C 74 % 1030,7 hPa 0,0 l/m 0 min 0 min 92 W/m 12,9 km/h (3 Bft) 100,00 %
06.10.2022 12:16 15,6 C 16,7 C 12,2 C 74 % 1030,6 hPa 0,0 l/m 0 min 0 min 89 W/m 9,7 km/h (2 Bft) 95,65 %
06.10.2022 12:18 15,6 C 16,1 C 12,2 C 75 % 1030,7 hPa 0,0 l/m 0 min 0 min 85 W/m 6,4 km/h (2 Bft) 95,74 %
06.10.2022 12:20 15,7 C 16,1 C 12,2 C 74 % 1030,7 hPa 0,0 l/m 0 min 0 min 80 W/m 16,1 km/h (3 Bft) 97,87 %
06.10.2022 12:22 15,7 C 16,1 C 12,2 C 75 % 1030,7 hPa 0,0 l/m 0 min 0 min 70 W/m 19,3 km/h (3 Bft) 97,87 %
06.10.2022 12:24 15,7 C 15,6 C 12,2 C 74 % 1030,7 hPa 0,0 l/m 0 min 0 min 67 W/m 16,1 km/h (3 Bft) 93,62 %
06.10.2022 12:26 15,8 C 15,6 C 12,2 C 74 % 1030,7 hPa 0,0 l/m 0 min 0 min 63 W/m 16,1 km/h (3 Bft) 91,49 %
06.10.2022 12:28 15,7 C 15,6 C 12,2 C 73 % 1030,7 hPa 0,0 l/m 0 min 0 min 62 W/m 16,1 km/h (3 Bft) 95,65 %
06.10.2022 12:30 15,7 C 15,6 C 12,2 C 72 % 1030,7 hPa 0,0 l/m 0 min 0 min 68 W/m 9,7 km/h (2 Bft) 93,62 %
06.10.2022 12:32 15,8 C 15,6 C 12,2 C 74 % 1030,7 hPa 0,0 l/m 0 min 0 min 60 W/m 12,9 km/h (3 Bft) 95,74 %
06.10.2022 12:34 15,8 C 15,6 C 12,2 C 73 % 1030,7 hPa 0,0 l/m 0 min 0 min 58 W/m 16,1 km/h (3 Bft) 95,74 %
06.10.2022 12:36 15,8 C 15,6 C 12,2 C 71 % 1030,7 hPa 0,0 l/m 0 min 0 min 60 W/m 19,3 km/h (3 Bft) 93,62 %
06.10.2022 12:38 15,8 C 15,6 C 12,2 C 72 % 1030,7 hPa 0,0 l/m 0 min 0 min 56 W/m 16,1 km/h (3 Bft) 95,74 %
06.10.2022 12:40 15,8 C 15,6 C 12,2 C 72 % 1030,8 hPa 0,0 l/m 0 min 0 min 57 W/m 6,4 km/h (2 Bft) 95,65 %
06.10.2022 12:42 15,8 C 15,6 C 12,2 C 72 % 1030,8 hPa 0,0 l/m 0 min 0 min 66 W/m 19,3 km/h (3 Bft) 93,62 %
06.10.2022 12:44 15,8 C 15,6 C 12,2 C 71 % 1030,8 hPa 0,0 l/m 0 min 0 min 59 W/m 19,3 km/h (3 Bft) 95,74 %
06.10.2022 12:46 15,8 C 15,6 C 12,2 C 71 % 1030,8 hPa 0,0 l/m 0 min 0 min 54 W/m 16,1 km/h (3 Bft) 95,74 %
06.10.2022 12:48 15,8 C 15,6 C 12,2 C 71 % 1030,8 hPa 0,0 l/m 0 min 0 min 54 W/m 12,9 km/h (3 Bft) 95,74 %
06.10.2022 12:50 15,9 C 15,6 C 12,2 C 72 % 1030,7 hPa 0,0 l/m 0 min 0 min 58 W/m 12,9 km/h (3 Bft) 95,74 %
06.10.2022 12:52 15,9 C 15,6 C 11,7 C 72 % 1030,7 hPa 0,0 l/m 0 min 0 min 63 W/m 12,9 km/h (3 Bft) 95,65 %
06.10.2022 12:54 15,9 C 15,6 C 11,7 C 72 % 1030,8 hPa 0,0 l/m 0 min 0 min 66 W/m 12,9 km/h (3 Bft) 93,62 %
06.10.2022 12:56 15,9 C 15,6 C 11,7 C 71 % 1030,7 hPa 0,0 l/m 0 min 0 min 63 W/m 16,1 km/h (3 Bft) 97,87 %
06.10.2022 12:58 15,9 C 15,6 C 11,7 C 71 % 1030,7 hPa 0,0 l/m 0 min 0 min 58 W/m 12,9 km/h (3 Bft) 97,87 %
06.10.2022 13:00 15,9 C 15,6 C 11,7 C 72 % 1030,7 hPa 0,0 l/m 0 min 0 min 57 W/m 12,9 km/h (3 Bft) 97,87 %
06.10.2022 13:02 15,9 C 15,6 C 11,7 C 71 % 1030,8 hPa 0,0 l/m 0 min 0 min 57 W/m 16,1 km/h (3 Bft) 97,87 %
06.10.2022 13:04 16,0 C 15,6 C 11,7 C 72 % 1030,8 hPa 0,0 l/m 0 min 0 min 59 W/m 19,3 km/h (3 Bft) 97,83 %
06.10.2022 13:06 16,1 C 15,6 C 12,2 C 71 % 1030,8 hPa 0,0 l/m 0 min 0 min 58 W/m 19,3 km/h (3 Bft) 100,00 %
06.10.2022 13:08 16,1 C 15,6 C 12,2 C 70 % 1030,8 hPa 0,0 l/m 0 min 0 min 56 W/m 12,9 km/h (3 Bft) 100,00 %
06.10.2022 13:10 16,1 C 15,6 C 12,2 C 70 % 1030,8 hPa 0,0 l/m 0 min 0 min 56 W/m 12,9 km/h (3 Bft) 100,00 %
06.10.2022 13:12 16,1 C 16,1 C 12,2 C 71 % 1030,7 hPa 0,0 l/m 0 min 0 min 56 W/m 6,4 km/h (2 Bft) 100,00 %
06.10.2022 13:14 16,2 C 16,1 C 12,2 C 70 % 1030,8 hPa 0,0 l/m 0 min 0 min 56 W/m 16,1 km/h (3 Bft) 100,00 %
06.10.2022 13:16 16,2 C 16,1 C 12,2 C 69 % 1030,7 hPa 0,0 l/m 0 min 0 min 54 W/m 12,9 km/h (3 Bft) 100,00 %
06.10.2022 13:18 16,2 C 15,6 C 12,2 C 68 % 1030,8 hPa 0,0 l/m 0 min 0 min 54 W/m 16,1 km/h (3 Bft) 100,00 %
06.10.2022 13:20 16,2 C 16,1 C 12,2 C 69 % 1030,8 hPa 0,0 l/m 0 min 0 min 54 W/m 12,9 km/h (3 Bft) 100,00 %
06.10.2022 13:22 16,2 C 15,6 C 12,2 C 68 % 1030,8 hPa 0,0 l/m 0 min 0 min 57 W/m 9,7 km/h (2 Bft) 100,00 %
06.10.2022 13:24 16,2 C 15,6 C 12,2 C 66 % 1030,9 hPa 0,0 l/m 0 min 0 min 74 W/m 19,3 km/h (3 Bft) 100,00 %
06.10.2022 13:26 16,3 C 16,1 C 12,2 C 68 % 1030,8 hPa 0,0 l/m 0 min 0 min 68 W/m 9,7 km/h (2 Bft) 100,00 %
06.10.2022 13:28 16,3 C 16,1 C 12,2 C 67 % 1030,8 hPa 0,0 l/m 0 min 0 min 77 W/m 19,3 km/h (3 Bft) 100,00 %
06.10.2022 13:30 16,3 C 16,1 C 12,2 C 67 % 1030,9 hPa 0,0 l/m 0 min 0 min 75 W/m 19,3 km/h (3 Bft) 100,00 %
06.10.2022 13:32 16,3 C 16,1 C 12,2 C 67 % 1030,8 hPa 0,0 l/m 0 min 0 min 68 W/m 9,7 km/h (2 Bft) 97,87 %
06.10.2022 13:34 16,3 C 16,1 C 12,2 C 68 % 1030,8 hPa 0,0 l/m 0 min 0 min 167 W/m 9,7 km/h (2 Bft) 100,00 %
06.10.2022 13:36 16,4 C 16,1 C 12,2 C 67 % 1030,8 hPa 0,0 l/m 0 min 0 min 249 W/m 16,1 km/h (3 Bft) 97,87 %
06.10.2022 13:38 16,4 C 16,1 C 12,2 C 68 % 1030,8 hPa 0,0 l/m 0 min 0 min 169 W/m 6,4 km/h (2 Bft) 100,00 %
06.10.2022 13:40 16,4 C 16,1 C 12,2 C 68 % 1030,8 hPa 0,0 l/m 0 min 0 min 66 W/m 6,4 km/h (2 Bft) 100,00 %
06.10.2022 13:42 16,4 C 16,1 C 12,2 C 68 % 1030,8 hPa 0,0 l/m 0 min 0 min 82 W/m 12,9 km/h (3 Bft) 97,87 %
06.10.2022 13:44 16,4 C 16,1 C 12,2 C 68 % 1030,8 hPa 0,0 l/m 0 min 0 min 152 W/m 9,7 km/h (2 Bft) 97,87 %
06.10.2022 13:46 16,4 C 16,7 C 12,2 C 67 % 1030,8 hPa 0,0 l/m 0 min 0 min 168 W/m 6,4 km/h (2 Bft) 95,74 %
06.10.2022 13:48 16,5 C 16,7 C 12,2 C 69 % 1030,8 hPa 0,0 l/m 2 min 0 min 395 W/m 12,9 km/h (3 Bft) 97,87 %
06.10.2022 13:50 16,6 C 17,2 C 12,2 C 69 % 1030,8 hPa 0,0 l/m 2 min 0 min 571 W/m 9,7 km/h (2 Bft) 97,87 %
06.10.2022 13:52 16,7 C 17,2 C 12,8 C 68 % 1030,8 hPa 0,0 l/m 2 min 0 min 599 W/m 19,3 km/h (3 Bft) 97,83 %
06.10.2022 13:54 16,7 C 17,2 C 12,8 C 67 % 1030,8 hPa 0,0 l/m 2 min 0 min 606 W/m 9,7 km/h (2 Bft) 97,87 %
06.10.2022 13:56 16,8 C 17,8 C 12,8 C 66 % 1030,7 hPa 0,0 l/m 2 min 0 min 613 W/m 19,3 km/h (3 Bft) 97,87 %
06.10.2022 13:58 16,8 C 18,3 C 12,2 C 66 % 1030,7 hPa 0,0 l/m 2 min 0 min 612 W/m 19,3 km/h (3 Bft) 97,87 %
06.10.2022 14:00 16,9 C 18,3 C 12,8 C 67 % 1030,7 hPa 0,0 l/m 2 min 0 min 613 W/m 16,1 km/h (3 Bft) 97,87 %
06.10.2022 14:02 16,9 C 18,9 C 12,8 C 67 % 1030,6 hPa 0,0 l/m 2 min 0 min 615 W/m 6,4 km/h (2 Bft) 97,83 %
06.10.2022 14:04 17,1 C 18,9 C 12,8 C 66 % 1030,6 hPa 0,0 l/m 2 min 0 min 608 W/m 3,2 km/h (1 Bft) 97,87 %
06.10.2022 14:06 17,1 C 18,9 C 12,8 C 64 % 1030,6 hPa 0,0 l/m 2 min 0 min 608 W/m 9,7 km/h (2 Bft) 95,74 %
06.10.2022 14:08 17,2 C 19,4 C 12,8 C 65 % 1030,6 hPa 0,0 l/m 2 min 0 min 608 W/m 19,3 km/h (3 Bft) 95,74 %
06.10.2022 14:10 17,3 C 20,6 C 12,8 C 64 % 1030,6 hPa 0,0 l/m 2 min 0 min 607 W/m 19,3 km/h (3 Bft) 97,87 %
06.10.2022 14:12 17,3 C 20,0 C 12,8 C 63 % 1030,6 hPa 0,0 l/m 2 min 0 min 608 W/m 16,1 km/h (3 Bft) 97,87 %
06.10.2022 14:14 17,3 C 20,0 C 12,8 C 63 % 1030,5 hPa 0,0 l/m 2 min 0 min 606 W/m 9,7 km/h (2 Bft) 97,83 %
06.10.2022 14:16 17,4 C 19,4 C 12,8 C 64 % 1030,5 hPa 0,0 l/m 2 min 0 min 604 W/m 19,3 km/h (3 Bft) 97,87 %
06.10.2022 14:18 17,4 C 18,9 C 12,8 C 64 % 1030,6 hPa 0,0 l/m 2 min 0 min 605 W/m 16,1 km/h (3 Bft) 93,62 %
06.10.2022 14:20 17,4 C 18,9 C 12,8 C 64 % 1030,6 hPa 0,0 l/m 2 min 0 min 605 W/m 16,1 km/h (3 Bft) 97,87 %
06.10.2022 14:22 17,4 C 19,4 C 12,8 C 64 % 1030,5 hPa 0,0 l/m 2 min 0 min 599 W/m 12,9 km/h (3 Bft) 97,87 %
06.10.2022 14:24 17,4 C 19,4 C 12,8 C 64 % 1030,6 hPa 0,0 l/m 2 min 0 min 596 W/m 12,9 km/h (3 Bft) 95,74 %
06.10.2022 14:26 17,5 C 19,4 C 12,8 C 63 % 1030,5 hPa 0,0 l/m 2 min 0 min 593 W/m 9,7 km/h (2 Bft) 95,74 %
06.10.2022 14:28 17,6 C 19,4 C 12,8 C 62 % 1030,5 hPa 0,0 l/m 2 min 0 min 591 W/m 16,1 km/h (3 Bft) 95,45 %
06.10.2022 14:30 17,7 C 18,9 C 12,8 C 62 % 1030,5 hPa 0,0 l/m 2 min 0 min 591 W/m 12,9 km/h (3 Bft) 95,74 %
06.10.2022 14:32 17,8 C 19,4 C 12,8 C 62 % 1030,5 hPa 0,0 l/m 2 min 0 min 592 W/m 16,1 km/h (3 Bft) 97,87 %
06.10.2022 14:34 17,9 C 18,9 C 12,8 C 63 % 1030,5 hPa 0,0 l/m 2 min 0 min 588 W/m 12,9 km/h (3 Bft) 97,87 %
06.10.2022 14:36 18,1 C 18,9 C 12,8 C 64 % 1030,5 hPa 0,0 l/m 2 min 0 min 585 W/m 16,1 km/h (3 Bft) 97,83 %
06.10.2022 14:38 18,1 C 18,3 C 12,8 C 63 % 1030,4 hPa 0,0 l/m 2 min 0 min 580 W/m 12,9 km/h (3 Bft) 97,87 %
06.10.2022 14:40 18,1 C 17,8 C 12,8 C 62 % 1030,4 hPa 0,0 l/m 2 min 0 min 581 W/m 12,9 km/h (3 Bft) 97,87 %
06.10.2022 14:42 18,2 C 17,8 C 12,8 C 63 % 1030,4 hPa 0,0 l/m 2 min 0 min 579 W/m 6,4 km/h (2 Bft) 97,87 %
06.10.2022 14:44 18,2 C 17,8 C 12,8 C 62 % 1030,5 hPa 0,0 l/m 2 min 0 min 574 W/m 19,3 km/h (3 Bft) 95,74 %
06.10.2022 14:46 18,2 C 17,8 C 12,8 C 62 % 1030,4 hPa 0,0 l/m 2 min 0 min 571 W/m 12,9 km/h (3 Bft) 97,87 %
06.10.2022 14:48 18,2 C 17,8 C 13,3 C 62 % 1030,5 hPa 0,0 l/m 2 min 0 min 569 W/m 22,5 km/h (4 Bft) 97,83 %
06.10.2022 14:50 18,3 C 17,8 C 12,8 C 61 % 1030,4 hPa 0,0 l/m 2 min 0 min 567 W/m 9,7 km/h (2 Bft) 97,87 %
06.10.2022 14:52 18,2 C 17,8 C 12,8 C 61 % 1030,4 hPa 0,0 l/m 2 min 0 min 566 W/m 16,1 km/h (3 Bft) 97,87 %
06.10.2022 14:54 18,2 C 17,8 C 12,8 C 61 % 1030,4 hPa 0,0 l/m 2 min 0 min 564 W/m 16,1 km/h (3 Bft) 95,74 %
06.10.2022 14:56 18,2 C 17,8 C 12,8 C 60 % 1030,4 hPa 0,0 l/m 2 min 0 min 556 W/m 25,7 km/h (4 Bft) 91,49 %
06.10.2022 14:58 18,2 C 17,8 C 12,8 C 60 % 1030,4 hPa 0,0 l/m 2 min 0 min 558 W/m 16,1 km/h (3 Bft) 95,74 %
06.10.2022 15:00 18,1 C 17,2 C 12,8 C 59 % 1030,4 hPa 0,0 l/m 2 min 0 min 556 W/m 22,5 km/h (4 Bft) 97,83 %
06.10.2022 15:02 18,1 C 17,2 C 12,8 C 59 % 1030,5 hPa 0,0 l/m 2 min 0 min 552 W/m 32,2 km/h (5 Bft) 95,74 %
06.10.2022 15:04 18,1 C 17,2 C 12,8 C 60 % 1030,4 hPa 0,0 l/m 2 min 0 min 545 W/m 16,1 km/h (3 Bft) 93,62 %
06.10.2022 15:06 18,1 C 17,8 C 12,8 C 61 % 1030,4 hPa 0,0 l/m 2 min 0 min 539 W/m 12,9 km/h (3 Bft) 95,74 %
06.10.2022 15:08 18,1 C 17,8 C 12,8 C 61 % 1030,4 hPa 0,0 l/m 2 min 0 min 534 W/m 12,9 km/h (3 Bft) 95,74 %
06.10.2022 15:10 18,1 C 17,8 C 12,8 C 60 % 1030,4 hPa 0,0 l/m 2 min 0 min 535 W/m 16,1 km/h (3 Bft) 97,87 %
06.10.2022 15:12 18,1 C 17,8 C 12,8 C 61 % 1030,4 hPa 0,0 l/m 2 min 0 min 537 W/m 12,9 km/h (3 Bft) 97,83 %
06.10.2022 15:14 18,1 C 17,2 C 12,8 C 61 % 1030,4 hPa 0,0 l/m 2 min 0 min 533 W/m 16,1 km/h (3 Bft) 95,74 %
06.10.2022 15:16 18,1 C 17,8 C 12,8 C 61 % 1030,3 hPa 0,0 l/m 2 min 0 min 531 W/m 16,1 km/h (3 Bft) 95,74 %
06.10.2022 15:18 18,1 C 17,8 C 12,8 C 61 % 1030,4 hPa 0,0 l/m 2 min 0 min 525 W/m 12,9 km/h (3 Bft) 97,87 %
06.10.2022 15:20 18,1 C 17,8 C 12,8 C 62 % 1030,4 hPa 0,0 l/m 2 min 0 min 516 W/m 6,4 km/h (2 Bft) 97,87 %
06.10.2022 15:22 18,1 C 17,8 C 12,8 C 61 % 1030,4 hPa 0,0 l/m 2 min 0 min 512 W/m 19,3 km/h (3 Bft) 97,87 %
06.10.2022 15:24 18,1 C 17,8 C 12,8 C 61 % 1030,3 hPa 0,0 l/m 2 min 0 min 514 W/m 12,9 km/h (3 Bft) 97,83 %
06.10.2022 15:26 18,0 C 17,8 C 12,8 C 61 % 1030,4 hPa 0,0 l/m 2 min 0 min 509 W/m 22,5 km/h (4 Bft) 97,87 %
06.10.2022 15:28 17,9 C 17,2 C 12,8 C 61 % 1030,4 hPa 0,0 l/m 2 min 0 min 508 W/m 12,9 km/h (3 Bft) 100,00 %
06.10.2022 15:30 17,9 C 17,2 C 12,8 C 60 % 1030,3 hPa 0,0 l/m 2 min 0 min 503 W/m 6,4 km/h (2 Bft) 97,87 %
06.10.2022 15:32 17,9 C 17,2 C 12,8 C 60 % 1030,3 hPa 0,0 l/m 2 min 0 min 500 W/m 12,9 km/h (3 Bft) 100,00 %
06.10.2022 15:34 17,9 C 17,2 C 12,8 C 60 % 1030,3 hPa 0,0 l/m 2 min 0 min 498 W/m 12,9 km/h (3 Bft) 97,87 %
06.10.2022 15:36 17,9 C 17,2 C 12,8 C 61 % 1030,4 hPa 0,0 l/m 2 min 0 min 496 W/m 19,3 km/h (3 Bft) 100,00 %
06.10.2022 15:38 17,8 C 17,2 C 12,8 C 60 % 1030,3 hPa 0,0 l/m 2 min 0 min 493 W/m 29,0 km/h (5 Bft) 100,00 %
06.10.2022 15:40 17,9 C 17,2 C 12,8 C 61 % 1030,2 hPa 0,0 l/m 2 min 0 min 490 W/m 16,1 km/h (3 Bft) 100,00 %
06.10.2022 15:42 17,9 C 17,2 C 12,8 C 61 % 1030,2 hPa 0,0 l/m 2 min 0 min 483 W/m 12,9 km/h (3 Bft) 100,00 %
06.10.2022 15:44 17,9 C 17,2 C 12,8 C 62 % 1030,2 hPa 0,0 l/m 2 min 0 min 478 W/m 9,7 km/h (2 Bft) 100,00 %
06.10.2022 15:46 18,0 C 17,2 C 12,8 C 61 % 1030,3 hPa 0,0 l/m 2 min 0 min 476 W/m 12,9 km/h (3 Bft) 97,87 %
06.10.2022 15:48 18,0 C 17,2 C 12,8 C 61 % 1030,2 hPa 0,0 l/m 2 min 0 min 472 W/m 16,1 km/h (3 Bft) 100,00 %
06.10.2022 15:50 17,9 C 17,2 C 12,8 C 60 % 1030,2 hPa 0,0 l/m 2 min 0 min 466 W/m 16,1 km/h (3 Bft) 100,00 %
06.10.2022 15:52 17,9 C 17,2 C 12,8 C 60 % 1030,2 hPa 0,0 l/m 2 min 0 min 462 W/m 16,1 km/h (3 Bft) 100,00 %
06.10.2022 15:54 18,0 C 17,2 C 12,8 C 60 % 1030,2 hPa 0,0 l/m 2 min 0 min 457 W/m 9,7 km/h (2 Bft) 100,00 %
06.10.2022 15:56 18,0 C 17,2 C 12,8 C 59 % 1030,3 hPa 0,0 l/m 2 min 0 min 453 W/m 16,1 km/h (3 Bft) 100,00 %
06.10.2022 15:58 18,0 C 17,2 C 12,8 C 60 % 1030,2 hPa 0,0 l/m 2 min 0 min 447 W/m 9,7 km/h (2 Bft) 100,00 %
06.10.2022 16:00 18,0 C 17,2 C 12,8 C 61 % 1030,2 hPa 0,0 l/m 2 min 0 min 443 W/m 12,9 km/h (3 Bft) 100,00 %
06.10.2022 16:02 18,0 C 17,8 C 12,8 C 60 % 1030,2 hPa 0,0 l/m 2 min 0 min 442 W/m 12,9 km/h (3 Bft) 100,00 %
06.10.2022 16:04 18,1 C 17,8 C 12,8 C 59 % 1030,2 hPa 0,0 l/m 2 min 0 min 437 W/m 16,1 km/h (3 Bft) 100,00 %
06.10.2022 16:06 18,1 C 17,8 C 12,8 C 59 % 1030,2 hPa 0,0 l/m 2 min 0 min 429 W/m 6,4 km/h (2 Bft) 100,00 %
06.10.2022 16:08 18,1 C 17,8 C 12,8 C 60 % 1030,2 hPa 0,0 l/m 2 min 0 min 424 W/m 6,4 km/h (2 Bft) 100,00 %
06.10.2022 16:10 18,1 C 17,8 C 12,8 C 60 % 1030,3 hPa 0,0 l/m 2 min 0 min 420 W/m 12,9 km/h (3 Bft) 100,00 %
06.10.2022 16:12 18,1 C 17,2 C 12,8 C 60 % 1030,2 hPa 0,0 l/m 2 min 0 min 417 W/m 16,1 km/h (3 Bft) 97,83 %
06.10.2022 16:14 18,1 C 17,2 C 12,8 C 60 % 1030,2 hPa 0,0 l/m 2 min 0 min 413 W/m 16,1 km/h (3 Bft) 97,87 %
06.10.2022 16:16 18,0 C 17,2 C 12,8 C 59 % 1030,2 hPa 0,0 l/m 2 min 0 min 407 W/m 12,9 km/h (3 Bft) 97,87 %
06.10.2022 16:18 18,0 C 17,2 C 12,8 C 59 % 1030,2 hPa 0,0 l/m 2 min 0 min 404 W/m 6,4 km/h (2 Bft) 100,00 %
06.10.2022 16:20 18,0 C 17,2 C 12,8 C 59 % 1030,3 hPa 0,0 l/m 2 min 0 min 398 W/m 22,5 km/h (4 Bft) 100,00 %
06.10.2022 16:22 17,9 C 17,2 C 12,8 C 58 % 1030,2 hPa 0,0 l/m 2 min 0 min 394 W/m 22,5 km/h (4 Bft) 100,00 %
06.10.2022 16:24 17,9 C 17,2 C 12,8 C 60 % 1030,2 hPa 0,0 l/m 2 min 0 min 387 W/m 9,7 km/h (2 Bft) 100,00 %
06.10.2022 16:26 17,9 C 17,2 C 12,8 C 59 % 1030,2 hPa 0,0 l/m 2 min 0 min 383 W/m 12,9 km/h (3 Bft) 100,00 %
06.10.2022 16:28 17,9 C 17,2 C 12,8 C 59 % 1030,2 hPa 0,0 l/m 2 min 0 min 372 W/m 9,7 km/h (2 Bft) 100,00 %
06.10.2022 16:30 17,9 C 17,8 C 12,8 C 60 % 1030,2 hPa 0,0 l/m 2 min 0 min 213 W/m 9,7 km/h (2 Bft) 100,00 %
06.10.2022 16:32 17,9 C 17,8 C 12,8 C 60 % 1030,2 hPa 0,0 l/m 2 min 0 min 366 W/m 12,9 km/h (3 Bft) 100,00 %
06.10.2022 16:34 17,9 C 17,8 C 12,8 C 60 % 1030,2 hPa 0,0 l/m 2 min 0 min 366 W/m 16,1 km/h (3 Bft) 100,00 %
06.10.2022 16:36 17,9 C 17,2 C 12,8 C 59 % 1030,2 hPa 0,0 l/m 2 min 0 min 363 W/m 12,9 km/h (3 Bft) 97,83 %
06.10.2022 16:38 17,9 C 17,2 C 12,8 C 59 % 1030,2 hPa 0,0 l/m 2 min 0 min 354 W/m 16,1 km/h (3 Bft) 100,00 %
06.10.2022 16:40 17,9 C 17,8 C 12,8 C 61 % 1030,2 hPa 0,0 l/m 2 min 0 min 347 W/m 9,7 km/h (2 Bft) 100,00 %
06.10.2022 16:42 17,9 C 17,8 C 12,8 C 60 % 1030,2 hPa 0,0 l/m 2 min 0 min 341 W/m 12,9 km/h (3 Bft) 100,00 %
06.10.2022 16:44 17,9 C 17,8 C 12,8 C 60 % 1030,1 hPa 0,0 l/m 2 min 0 min 338 W/m 6,4 km/h (2 Bft) 100,00 %
06.10.2022 16:46 17,9 C 17,2 C 12,8 C 59 % 1030,2 hPa 0,0 l/m 2 min 0 min 333 W/m 9,7 km/h (2 Bft) 97,87 %
06.10.2022 16:48 17,8 C 17,2 C 12,8 C 59 % 1030,2 hPa 0,0 l/m 2 min 0 min 327 W/m 12,9 km/h (3 Bft) 100,00 %
06.10.2022 16:50 17,8 C 17,8 C 12,8 C 60 % 1030,1 hPa 0,0 l/m 2 min 0 min 323 W/m 9,7 km/h (2 Bft) 100,00 %
06.10.2022 16:52 17,8 C 17,2 C 12,8 C 59 % 1030,3 hPa 0,0 l/m 2 min 0 min 317 W/m 16,1 km/h (3 Bft) 97,87 %
06.10.2022 16:54 17,8 C 17,2 C 12,8 C 58 % 1030,2 hPa 0,0 l/m 2 min 0 min 310 W/m 12,9 km/h (3 Bft) 97,87 %
06.10.2022 16:56 17,8 C 17,2 C 12,2 C 60 % 1030,2 hPa 0,0 l/m 2 min 0 min 302 W/m 12,9 km/h (3 Bft) 93,62 %
06.10.2022 16:58 17,7 C 17,2 C 12,2 C 59 % 1030,2 hPa 0,0 l/m 2 min 0 min 294 W/m 19,3 km/h (3 Bft) 93,62 %
06.10.2022 17:00 17,7 C 16,7 C 12,2 C 59 % 1030,2 hPa 0,0 l/m 2 min 0 min 290 W/m 25,7 km/h (4 Bft) 97,83 %
06.10.2022 17:02 17,7 C 16,7 C 12,2 C 59 % 1030,2 hPa 0,0 l/m 2 min 0 min 282 W/m 12,9 km/h (3 Bft) 97,87 %
06.10.2022 17:04 17,7 C 16,7 C 12,2 C 59 % 1030,2 hPa 0,0 l/m 2 min 0 min 275 W/m 6,4 km/h (2 Bft) 95,74 %
06.10.2022 17:06 17,6 C 16,7 C 12,2 C 59 % 1030,2 hPa 0,0 l/m 2 min 0 min 265 W/m 12,9 km/h (3 Bft) 95,74 %
06.10.2022 17:08 17,6 C 16,7 C 12,2 C 60 % 1030,2 hPa 0,0 l/m 2 min 0 min 260 W/m 9,7 km/h (2 Bft) 93,62 %
06.10.2022 17:10 17,6 C 16,7 C 12,2 C 60 % 1030,2 hPa 0,0 l/m 2 min 0 min 255 W/m 12,9 km/h (3 Bft) 93,62 %
06.10.2022 17:12 17,6 C 16,7 C 12,2 C 60 % 1030,1 hPa 0,0 l/m 2 min 0 min 250 W/m 9,7 km/h (2 Bft) 93,48 %
06.10.2022 17:14 17,5 C 16,7 C 12,2 C 60 % 1030,1 hPa 0,0 l/m 2 min 0 min 243 W/m 9,7 km/h (2 Bft) 93,62 %
06.10.2022 17:16 17,4 C 16,7 C 12,2 C 60 % 1030,1 hPa 0,0 l/m 2 min 0 min 232 W/m 16,1 km/h (3 Bft) 93,62 %
06.10.2022 17:18 17,4 C 16,7 C 12,2 C 60 % 1030,1 hPa 0,0 l/m 2 min 0 min 224 W/m 16,1 km/h (3 Bft) 93,62 %
06.10.2022 17:20 17,4 C 16,7 C 12,2 C 60 % 1030,1 hPa 0,0 l/m 2 min 0 min 218 W/m 19,3 km/h (3 Bft) 93,62 %
06.10.2022 17:22 17,4 C 16,7 C 12,2 C 59 % 1030,1 hPa 0,0 l/m 2 min 0 min 210 W/m 29,0 km/h (5 Bft) 89,36 %
06.10.2022 17:24 17,3 C 16,7 C 12,2 C 60 % 1030,1 hPa 0,0 l/m 2 min 0 min 202 W/m 16,1 km/h (3 Bft) 93,48 %
06.10.2022 17:26 17,3 C 16,7 C 12,2 C 61 % 1030,1 hPa 0,0 l/m 2 min 0 min 197 W/m 19,3 km/h (3 Bft) 93,62 %
06.10.2022 17:28 17,3 C 16,7 C 12,2 C 62 % 1030,1 hPa 0,0 l/m 2 min 0 min 189 W/m 3,2 km/h (1 Bft) 93,62 %
06.10.2022 17:30 17,3 C 16,7 C 12,2 C 63 % 1030,1 hPa 0,0 l/m 2 min 0 min 181 W/m 6,4 km/h (2 Bft) 95,74 %
06.10.2022 17:32 17,2 C 16,1 C 12,2 C 62 % 1030,0 hPa 0,0 l/m 2 min 0 min 175 W/m 6,4 km/h (2 Bft) 93,62 %
06.10.2022 17:34 17,2 C 16,1 C 12,2 C 62 % 1030,0 hPa 0,0 l/m 2 min 0 min 169 W/m 9,7 km/h (2 Bft) 93,62 %
06.10.2022 17:36 17,1 C 16,1 C 12,2 C 61 % 1030,0 hPa 0,0 l/m 2 min 0 min 162 W/m 9,7 km/h (2 Bft) 93,48 %
06.10.2022 17:38 17,1 C 16,1 C 12,2 C 61 % 1030,1 hPa 0,0 l/m 2 min 0 min 156 W/m 12,9 km/h (3 Bft) 95,74 %
06.10.2022 17:40 17,1 C 16,1 C 12,2 C 61 % 1030,0 hPa 0,0 l/m 2 min 0 min 150 W/m 16,1 km/h (3 Bft) 95,74 %
06.10.2022 17:42 17,0 C 16,1 C 12,2 C 61 % 1030,0 hPa 0,0 l/m 2 min 0 min 143 W/m 22,5 km/h (4 Bft) 95,74 %
06.10.2022 17:44 16,9 C 16,1 C 12,2 C 60 % 1030,1 hPa 0,0 l/m 2 min 0 min 102 W/m 22,5 km/h (4 Bft) 93,62 %
06.10.2022 17:46 16,9 C 16,1 C 12,2 C 60 % 1030,0 hPa 0,0 l/m 0 min 0 min 44 W/m 25,7 km/h (4 Bft) 93,62 %
06.10.2022 17:48 16,9 C 16,1 C 12,2 C 60 % 1030,1 hPa 0,0 l/m 0 min 0 min 36 W/m 9,7 km/h (2 Bft) 95,65 %
06.10.2022 17:50 16,9 C 16,1 C 11,7 C 61 % 1030,0 hPa 0,0 l/m 0 min 0 min 35 W/m 12,9 km/h (3 Bft) 95,74 %
06.10.2022 17:52 16,8 C 16,1 C 11,7 C 61 % 1030,0 hPa 0,0 l/m 0 min 0 min 34 W/m 6,4 km/h (2 Bft) 95,74 %
06.10.2022 17:54 16,8 C 16,1 C 11,7 C 61 % 1030,0 hPa 0,0 l/m 0 min 0 min 33 W/m 6,4 km/h (2 Bft) 97,87 %
06.10.2022 17:56 16,8 C 16,1 C 11,7 C 62 % 1030,0 hPa 0,0 l/m 0 min 0 min 33 W/m 16,1 km/h (3 Bft) 100,00 %
06.10.2022 17:58 16,8 C 16,1 C 11,7 C 61 % 1030,0 hPa 0,0 l/m 0 min 0 min 32 W/m 6,4 km/h (2 Bft) 97,83 %
06.10.2022 18:00 16,7 C 15,6 C 11,7 C 62 % 1030,0 hPa 0,0 l/m 0 min 0 min 32 W/m 3,2 km/h (1 Bft) 100,00 %
06.10.2022 18:02 16,7 C 15,6 C 11,7 C 63 % 1030,0 hPa 0,0 l/m 0 min 0 min 30 W/m 6,4 km/h (2 Bft) 100,00 %
06.10.2022 18:04 16,7 C 15,6 C 11,7 C 63 % 1030,0 hPa 0,0 l/m 0 min 0 min 30 W/m 9,7 km/h (2 Bft) 100,00 %
06.10.2022 18:08 16,6 C 15,6 C 11,7 C 63 % 1030,0 hPa 0,0 l/m 0 min 0 min 28 W/m 9,7 km/h (2 Bft) 100,00 %
06.10.2022 18:10 16,6 C 15,6 C 11,7 C 63 % 1030,0 hPa 0,0 l/m 0 min 0 min 27 W/m 6,4 km/h (2 Bft) 100,00 %
06.10.2022 18:12 16,5 C 15,6 C 11,1 C 63 % 1030,1 hPa 0,0 l/m 0 min 0 min 26 W/m 16,1 km/h (3 Bft) 100,00 %
06.10.2022 18:14 16,4 C 15,6 C 11,1 C 63 % 1030,0 hPa 0,0 l/m 0 min 0 min 25 W/m 9,7 km/h (2 Bft) 100,00 %
06.10.2022 18:16 16,4 C 15,6 C 11,1 C 63 % 1030,1 hPa 0,0 l/m 0 min 0 min 25 W/m 6,4 km/h (2 Bft) 100,00 %
06.10.2022 18:18 16,3 C 15,0 C 11,1 C 63 % 1030,0 hPa 0,0 l/m 0 min 0 min 25 W/m 6,4 km/h (2 Bft) 100,00 %
06.10.2022 18:20 16,3 C 15,0 C 11,1 C 63 % 1030,0 hPa 0,0 l/m 0 min 0 min 24 W/m 12,9 km/h (3 Bft) 97,87 %
06.10.2022 18:22 16,2 C 15,0 C 11,1 C 63 % 1030,0 hPa 0,0 l/m 0 min 0 min 21 W/m 6,4 km/h (2 Bft) 100,00 %
06.10.2022 18:24 16,2 C 15,0 C 11,1 C 64 % 1030,0 hPa 0,0 l/m 0 min 0 min 20 W/m 6,4 km/h (2 Bft) 100,00 %
06.10.2022 18:26 16,1 C 15,0 C 11,1 C 64 % 1030,0 hPa 0,0 l/m 0 min 0 min 19 W/m 6,4 km/h (2 Bft) 100,00 %
06.10.2022 18:28 16,1 C 15,0 C 11,1 C 64 % 1030,0 hPa 0,0 l/m 0 min 0 min 19 W/m 3,2 km/h (1 Bft) 100,00 %
06.10.2022 18:30 16,0 C 15,0 C 11,1 C 64 % 1030,0 hPa 0,0 l/m 0 min 0 min 18 W/m 6,4 km/h (2 Bft) 100,00 %
06.10.2022 18:32 15,9 C 15,0 C 11,1 C 64 % 1030,0 hPa 0,0 l/m 0 min 0 min 18 W/m 3,2 km/h (1 Bft) 100,00 %
06.10.2022 18:34 15,9 C 15,0 C 10,6 C 65 % 1030,0 hPa 0,0 l/m 0 min 0 min 16 W/m 3,2 km/h (1 Bft) 100,00 %
06.10.2022 18:36 15,9 C 14,4 C 10,6 C 65 % 1030,0 hPa 0,0 l/m 0 min 0 min 16 W/m 6,4 km/h (2 Bft) 100,00 %
06.10.2022 18:38 15,8 C 14,4 C 10,6 C 64 % 1030,0 hPa 0,0 l/m 0 min 0 min 16 W/m 9,7 km/h (2 Bft) 56,52 %
06.10.2022 18:40 15,8 C 14,4 C 10,6 C 64 % 1030,0 hPa 0,0 l/m 0 min 0 min 14 W/m 3,2 km/h (1 Bft) 100,00 %
06.10.2022 18:42 15,8 C 14,4 C 10,6 C 65 % 1030,1 hPa 0,0 l/m 0 min 0 min 13 W/m 3,2 km/h (1 Bft) 100,00 %
06.10.2022 18:44 15,7 C 14,4 C 10,6 C 65 % 1030,1 hPa 0,0 l/m 0 min 0 min 12 W/m 3,2 km/h (1 Bft) 100,00 %
06.10.2022 18:46 15,7 C 14,4 C 10,6 C 65 % 1030,0 hPa 0,0 l/m 0 min 0 min 12 W/m 6,4 km/h (2 Bft) 100,00 %
06.10.2022 18:48 15,6 C 14,4 C 10,0 C 66 % 1030,1 hPa 0,0 l/m 0 min 0 min 11 W/m 3,2 km/h (1 Bft) 100,00 %
06.10.2022 18:50 15,6 C 14,4 C 10,0 C 66 % 1030,0 hPa 0,0 l/m 0 min 0 min 11 W/m 3,2 km/h (1 Bft) 100,00 %
06.10.2022 18:52 15,5 C 13,9 C 10,0 C 67 % 1030,0 hPa 0,0 l/m 0 min 0 min 9 W/m 3,2 km/h (1 Bft) 95,65 %
06.10.2022 18:54 15,5 C 13,9 C 10,0 C 67 % 1030,0 hPa 0,0 l/m 0 min 0 min 8 W/m 3,2 km/h (1 Bft) 100,00 %
06.10.2022 18:56 15,4 C 13,9 C 10,0 C 67 % 1030,1 hPa 0,0 l/m 0 min 0 min 7 W/m 3,2 km/h (1 Bft) 97,87 %
06.10.2022 18:58 15,3 C 13,9 C 9,4 C 67 % 1030,1 hPa 0,0 l/m 0 min 0 min 6 W/m 3,2 km/h (1 Bft) 100,00 %
06.10.2022 19:00 15,3 C 13,9 C 9,4 C 67 % 1030,1 hPa 0,0 l/m 0 min 0 min 5 W/m 9,7 km/h (2 Bft) 100,00 %
06.10.2022 19:02 15,2 C 13,9 C 9,4 C 67 % 1030,1 hPa 0,0 l/m 0 min 0 min 4 W/m 3,2 km/h (1 Bft) 100,00 %
06.10.2022 19:04 15,2 C 13,9 C 9,4 C 68 % 1030,1 hPa 0,0 l/m 0 min 0 min 0 W/m 0,0 km/h (0 Bft) 100,00 %
06.10.2022 19:06 15,1 C 13,3 C 8,9 C 68 % 1030,1 hPa 0,0 l/m 0 min 0 min 0 W/m 0,0 km/h (0 Bft) 100,00 %
06.10.2022 19:08 15,1 C 13,3 C 8,9 C 68 % 1030,2 hPa 0,0 l/m 0 min 0 min 0 W/m 6,4 km/h (2 Bft) 100,00 %
06.10.2022 19:10 15,0 C 13,3 C 8,9 C 68 % 1030,1 hPa 0,0 l/m 0 min 0 min 0 W/m 6,4 km/h (2 Bft) 100,00 %
06.10.2022 19:12 14,9 C 13,3 C 9,4 C 68 % 1030,2 hPa 0,0 l/m 0 min 0 min 0 W/m 9,7 km/h (2 Bft) 97,87 %
06.10.2022 19:14 14,9 C 13,3 C 8,9 C 68 % 1030,1 hPa 0,0 l/m 0 min 0 min 0 W/m 6,4 km/h (2 Bft) 97,87 %
06.10.2022 19:16 14,8 C 13,3 C 9,4 C 69 % 1030,1 hPa 0,0 l/m 0 min 0 min 0 W/m 6,4 km/h (2 Bft) 97,83 %
06.10.2022 19:18 14,7 C 13,3 C 8,9 C 69 % 1030,1 hPa 0,0 l/m 0 min 0 min 0 W/m 3,2 km/h (1 Bft) 97,87 %
06.10.2022 19:20 14,7 C 13,3 C 8,9 C 70 % 1030,1 hPa 0,0 l/m 0 min 0 min 0 W/m 3,2 km/h (1 Bft) 97,87 %
06.10.2022 19:22 14,7 C 13,3 C 8,9 C 70 % 1030,1 hPa 0,0 l/m 0 min 0 min 0 W/m 6,4 km/h (2 Bft) 95,74 %
06.10.2022 19:24 14,6 C 13,3 C 8,9 C 70 % 1030,1 hPa 0,0 l/m 0 min 0 min 0 W/m 6,4 km/h (2 Bft) 93,62 %
06.10.2022 19:26 14,6 C 13,3 C 8,9 C 70 % 1030,1 hPa 0,0 l/m 0 min 0 min 0 W/m 3,2 km/h (1 Bft) 95,74 %
06.10.2022 19:28 14,5 C 13,3 C 8,9 C 70 % 1030,1 hPa 0,0 l/m 0 min 0 min 0 W/m 3,2 km/h (1 Bft) 95,65 %
06.10.2022 19:30 14,4 C 12,8 C 8,9 C 70 % 1030,2 hPa 0,0 l/m 0 min 0 min 0 W/m 3,2 km/h (1 Bft) 93,62 %
06.10.2022 19:32 14,4 C 12,8 C 8,9 C 71 % 1030,2 hPa 0,0 l/m 0 min 0 min 0 W/m 0,0 km/h (0 Bft) 93,62 %
06.10.2022 19:34 14,3 C 12,8 C 8,9 C 71 % 1030,2 hPa 0,0 l/m 0 min 0 min 0 W/m 3,2 km/h (1 Bft) 93,62 %
06.10.2022 19:36 14,3 C 12,8 C 8,9 C 71 % 1030,1 hPa 0,0 l/m 0 min 0 min 0 W/m 6,4 km/h (2 Bft) 93,10 %
06.10.2022 19:38 14,3 C 12,8 C 8,9 C 71 % 1030,1 hPa 0,0 l/m 0 min 0 min 0 W/m 3,2 km/h (1 Bft) 91,43 %
06.10.2022 19:40 14,3 C 12,8 C 8,9 C 72 % 1030,2 hPa 0,0 l/m 0 min 0 min 0 W/m 3,2 km/h (1 Bft) 93,62 %
06.10.2022 19:42 14,3 C 12,8 C 8,3 C 72 % 1030,1 hPa 0,0 l/m 0 min 0 min 0 W/m 9,7 km/h (2 Bft) 93,62 %
06.10.2022 19:44 14,1 C 12,8 C 8,3 C 72 % 1030,1 hPa 0,0 l/m 0 min 0 min 0 W/m 6,4 km/h (2 Bft) 95,74 %
06.10.2022 19:46 14,1 C 12,8 C 8,3 C 72 % 1030,2 hPa 0,0 l/m 0 min 0 min 0 W/m 3,2 km/h (1 Bft) 95,74 %
06.10.2022 19:48 14,1 C 12,2 C 8,3 C 73 % 1030,1 hPa 0,0 l/m 0 min 0 min 0 W/m 0,0 km/h (0 Bft) 95,74 %
06.10.2022 19:50 14,0 C 12,2 C 8,3 C 72 % 1030,1 hPa 0,0 l/m 0 min 0 min 0 W/m 3,2 km/h (1 Bft) 95,65 %
06.10.2022 19:52 13,9 C 12,2 C 7,8 C 73 % 1030,1 hPa 0,0 l/m 0 min 0 min 0 W/m 0,0 km/h (0 Bft) 95,74 %
06.10.2022 19:54 13,9 C 12,2 C 7,8 C 73 % 1030,1 hPa 0,0 l/m 0 min 0 min 0 W/m 0,0 km/h (0 Bft) 93,62 %
06.10.2022 19:56 13,8 C 12,2 C 7,8 C 73 % 1030,1 hPa 0,0 l/m 0 min 0 min 0 W/m 0,0 km/h (0 Bft) 93,62 %
06.10.2022 19:58 13,8 C 12,2 C 7,8 C 74 % 1030,1 hPa 0,0 l/m 0 min 0 min 0 W/m 3,2 km/h (1 Bft) 93,62 %
06.10.2022 20:00 13,8 C 12,2 C 7,8 C 74 % 1030,1 hPa 0,0 l/m 0 min 0 min 0 W/m 6,4 km/h (2 Bft) 95,74 %
06.10.2022 20:02 13,7 C 12,2 C 7,8 C 74 % 1030,1 hPa 0,0 l/m 0 min 0 min 0 W/m 6,4 km/h (2 Bft) 97,87 %
06.10.2022 20:04 13,7 C 12,2 C 7,8 C 74 % 1030,1 hPa 0,0 l/m 0 min 0 min 0 W/m 3,2 km/h (1 Bft) 97,83 %
06.10.2022 20:06 13,6 C 12,2 C 7,8 C 74 % 1030,1 hPa 0,0 l/m 0 min 0 min 0 W/m 3,2 km/h (1 Bft) 96,61 %
06.10.2022 20:08 13,6 C 12,2 C 7,8 C 74 % 1030,1 hPa 0,0 l/m 0 min 0 min 0 W/m 0,0 km/h (0 Bft) 100,00 %
06.10.2022 20:10 13,6 C 12,2 C 7,8 C 74 % 1030,1 hPa 0,0 l/m 0 min 0 min 0 W/m 3,2 km/h (1 Bft) 95,74 %
06.10.2022 20:12 13,5 C 11,7 C 7,8 C 75 % 1030,1 hPa 0,0 l/m 0 min 0 min 0 W/m 0,0 km/h (0 Bft) 97,87 %
06.10.2022 20:14 13,4 C 11,7 C 7,8 C 75 % 1030,1 hPa 0,0 l/m 0 min 0 min 0 W/m 0,0 km/h (0 Bft) 95,65 %
06.10.2022 20:16 13,4 C 11,7 C 7,2 C 75 % 1030,0 hPa 0,0 l/m 0 min 0 min 0 W/m 0,0 km/h (0 Bft) 97,87 %
06.10.2022 20:18 13,3 C 11,7 C 7,2 C 75 % 1030,0 hPa 0,0 l/m 0 min 0 min 0 W/m 0,0 km/h (0 Bft) 97,87 %
06.10.2022 20:20 13,3 C 11,7 C 7,2 C 75 % 1030,1 hPa 0,0 l/m 0 min 0 min 0 W/m 0,0 km/h (0 Bft) 97,87 %
06.10.2022 20:22 13,2 C 11,7 C 7,2 C 76 % 1030,0 hPa 0,0 l/m 0 min 0 min 0 W/m 0,0 km/h (0 Bft) 97,87 %
06.10.2022 20:24 13,2 C 11,7 C 7,2 C 76 % 1030,1 hPa 0,0 l/m 0 min 0 min 0 W/m 0,0 km/h (0 Bft) 100,00 %
06.10.2022 20:26 13,1 C 11,1 C 7,2 C 76 % 1030,1 hPa 0,0 l/m 0 min 0 min 0 W/m 0,0 km/h (0 Bft) 100,00 %
06.10.2022 20:28 13,1 C 11,1 C 7,2 C 76 % 1030,1 hPa 0,0 l/m 0 min 0 min 0 W/m 0,0 km/h (0 Bft) 97,87 %
06.10.2022 20:30 13,0 C 11,1 C 7,2 C 77 % 1030,1 hPa 0,0 l/m 0 min 0 min 0 W/m 0,0 km/h (0 Bft) 100,00 %
06.10.2022 20:32 13,0 C 11,1 C 7,2 C 77 % 1030,0 hPa 0,0 l/m 0 min 0 min 0 W/m 0,0 km/h (0 Bft) 100,00 %
06.10.2022 20:34 12,9 C 11,1 C 6,7 C 77 % 1030,0 hPa 0,0 l/m 0 min 0 min 0 W/m 0,0 km/h (0 Bft) 100,00 %
06.10.2022 20:36 12,8 C 11,1 C 6,7 C 78 % 1030,1 hPa 0,0 l/m 0 min 0 min 0 W/m 0,0 km/h (0 Bft) 93,10 %
06.10.2022 20:38 12,8 C 11,1 C 6,7 C 77 % 1030,1 hPa 0,0 l/m 0 min 0 min 0 W/m 3,2 km/h (1 Bft) 100,00 %
06.10.2022 20:40 12,8 C 11,1 C 6,7 C 78 % 1030,1 hPa 0,0 l/m 0 min 0 min 0 W/m 3,2 km/h (1 Bft) 100,00 %
06.10.2022 20:42 12,7 C 11,1 C 7,2 C 78 % 1030,0 hPa 0,0 l/m 0 min 0 min 0 W/m 3,2 km/h (1 Bft) 100,00 %
06.10.2022 20:44 12,7 C 11,1 C 7,2 C 78 % 1030,1 hPa 0,0 l/m 0 min 0 min 0 W/m 3,2 km/h (1 Bft) 100,00 %
06.10.2022 20:46 12,6 C 11,1 C 7,2 C 78 % 1030,1 hPa 0,0 l/m 0 min 0 min 0 W/m 3,2 km/h (1 Bft) 97,87 %
06.10.2022 20:48 12,6 C 11,1 C 6,7 C 78 % 1030,1 hPa 0,0 l/m 0 min 0 min 0 W/m 0,0 km/h (0 Bft) 100,00 %
06.10.2022 20:50 12,6 C 11,1 C 6,7 C 78 % 1030,1 hPa 0,0 l/m 0 min 0 min 0 W/m 0,0 km/h (0 Bft) 100,00 %
06.10.2022 20:52 12,6 C 11,1 C 6,7 C 78 % 1030,1 hPa 0,0 l/m 0 min 0 min 0 W/m 0,0 km/h (0 Bft) 100,00 %
06.10.2022 20:54 12,5 C 11,1 C 6,7 C 78 % 1030,1 hPa 0,0 l/m 0 min 0 min 0 W/m 3,2 km/h (1 Bft) 97,87 %
06.10.2022 20:56 12,5 C 11,1 C 6,7 C 79 % 1030,1 hPa 0,0 l/m 0 min 0 min 0 W/m 6,4 km/h (2 Bft) 97,87 %
06.10.2022 20:58 12,4 C 11,1 C 6,7 C 79 % 1030,0 hPa 0,0 l/m 0 min 0 min 0 W/m 3,2 km/h (1 Bft) 97,87 %
06.10.2022 21:00 12,4 C 11,1 C 6,7 C 79 % 1030,0 hPa 0,0 l/m 0 min 0 min 0 W/m 3,2 km/h (1 Bft) 95,74 %
06.10.2022 21:02 12,4 C 11,1 C 6,7 C 79 % 1030,0 hPa 0,0 l/m 0 min 0 min 0 W/m 0,0 km/h (0 Bft) 97,83 %
06.10.2022 21:04 12,3 C 10,6 C 6,7 C 79 % 1030,0 hPa 0,0 l/m 0 min 0 min 0 W/m 0,0 km/h (0 Bft) 97,87 %
06.10.2022 21:06 12,3 C 10,6 C 6,7 C 80 % 1030,0 hPa 0,0 l/m 0 min 0 min 0 W/m 3,2 km/h (1 Bft) 98,31 %
06.10.2022 21:08 12,3 C 10,6 C 6,7 C 80 % 1030,0 hPa 0,0 l/m 0 min 0 min 0 W/m 3,2 km/h (1 Bft) 97,14 %
06.10.2022 21:10 12,2 C 10,6 C 6,7 C 80 % 1030,0 hPa 0,0 l/m 0 min 0 min 0 W/m 3,2 km/h (1 Bft) 97,87 %
06.10.2022 21:12 12,2 C 10,6 C 6,7 C 80 % 1030,1 hPa 0,0 l/m 0 min 0 min 0 W/m 3,2 km/h (1 Bft) 95,74 %
06.10.2022 21:14 12,2 C 10,6 C 6,7 C 80 % 1030,0 hPa 0,0 l/m 0 min 0 min 0 W/m 0,0 km/h (0 Bft) 95,65 %
06.10.2022 21:16 12,1 C 10,6 C 6,7 C 80 % 1030,1 hPa 0,0 l/m 0 min 0 min 0 W/m 3,2 km/h (1 Bft) 97,87 %
06.10.2022 21:18 12,1 C 10,6 C 6,7 C 80 % 1030,1 hPa 0,0 l/m 0 min 0 min 0 W/m 0,0 km/h (0 Bft) 97,87 %
06.10.2022 21:20 12,1 C 10,6 C 6,7 C 80 % 1030,1 hPa 0,0 l/m 0 min 0 min 0 W/m 0,0 km/h (0 Bft) 97,87 %
06.10.2022 21:22 12,1 C 10,6 C 6,7 C 80 % 1030,1 hPa 0,0 l/m 0 min 0 min 0 W/m 0,0 km/h (0 Bft) 95,74 %
06.10.2022 21:24 12,1 C 10,6 C 6,7 C 81 % 1030,1 hPa 0,0 l/m 0 min 0 min 0 W/m 0,0 km/h (0 Bft) 95,74 %
06.10.2022 21:26 12,0 C 10,6 C 6,7 C 81 % 1030,0 hPa 0,0 l/m 0 min 0 min 0 W/m 3,2 km/h (1 Bft) 95,65 %
06.10.2022 21:28 11,9 C 10,6 C 6,1 C 81 % 1030,0 hPa 0,0 l/m 0 min 0 min 0 W/m 0,0 km/h (0 Bft) 97,87 %
06.10.2022 21:30 11,9 C 10,0 C 6,1 C 81 % 1030,0 hPa 0,0 l/m 0 min 0 min 0 W/m 0,0 km/h (0 Bft) 97,87 %
06.10.2022 21:32 11,9 C 10,0 C 6,1 C 81 % 1030,0 hPa 0,0 l/m 0 min 0 min 0 W/m 0,0 km/h (0 Bft) 97,87 %
06.10.2022 21:34 11,8 C 10,0 C 6,1 C 81 % 1030,0 hPa 0,0 l/m 0 min 0 min 0 W/m 0,0 km/h (0 Bft) 95,74 %
06.10.2022 21:36 11,8 C 10,0 C 6,1 C 82 % 1030,1 hPa 0,0 l/m 0 min 0 min 0 W/m 0,0 km/h (0 Bft) 96,55 %
06.10.2022 21:38 11,8 C 10,0 C 6,1 C 82 % 1030,1 hPa 0,0 l/m 0 min 0 min 0 W/m 0,0 km/h (0 Bft) 100,00 %
06.10.2022 21:40 11,7 C 10,0 C 6,1 C 82 % 1030,1 hPa 0,0 l/m 0 min 0 min 0 W/m 0,0 km/h (0 Bft) 95,74 %
06.10.2022 21:42 11,7 C 10,0 C 6,1 C 82 % 1030,1 hPa 0,0 l/m 0 min 0 min 0 W/m 0,0 km/h (0 Bft) 97,87 %
06.10.2022 21:44 11,7 C 10,0 C 6,1 C 82 % 1030,1 hPa 0,0 l/m 0 min 0 min 0 W/m 0,0 km/h (0 Bft) 97,87 %
06.10.2022 21:46 11,6 C 10,0 C 6,1 C 82 % 1030,0 hPa 0,0 l/m 0 min 0 min 0 W/m 3,2 km/h (1 Bft) 97,87 %
06.10.2022 21:48 11,6 C 10,0 C 6,1 C 82 % 1030,0 hPa 0,0 l/m 0 min 0 min 0 W/m 3,2 km/h (1 Bft) 95,74 %
06.10.2022 21:50 11,6 C 10,0 C 6,1 C 82 % 1030,0 hPa 0,0 l/m 0 min 0 min 0 W/m 0,0 km/h (0 Bft) 97,83 %
06.10.2022 21:52 11,5 C 9,4 C 6,1 C 82 % 1030,0 hPa 0,0 l/m 0 min 0 min 0 W/m 0,0 km/h (0 Bft) 97,87 %
06.10.2022 21:54 11,4 C 9,4 C 5,6 C 83 % 1030,0 hPa 0,0 l/m 0 min 0 min 0 W/m 0,0 km/h (0 Bft) 100,00 %
06.10.2022 21:56 11,4 C 9,4 C 5,6 C 83 % 1030,0 hPa 0,0 l/m 0 min 0 min 0 W/m 0,0 km/h (0 Bft) 100,00 %
06.10.2022 21:58 11,4 C 9,4 C 5,6 C 83 % 1030,0 hPa 0,0 l/m 0 min 0 min 0 W/m 0,0 km/h (0 Bft) 100,00 %
06.10.2022 22:00 11,3 C 9,4 C 5,6 C 83 % 1030,0 hPa 0,0 l/m 0 min 0 min 0 W/m 0,0 km/h (0 Bft) 100,00 %
06.10.2022 22:02 11,3 C 9,4 C 5,6 C 83 % 1030,0 hPa 0,0 l/m 0 min 0 min 0 W/m 0,0 km/h (0 Bft) 100,00 %
06.10.2022 22:04 11,2 C 9,4 C 5,6 C 84 % 1030,0 hPa 0,0 l/m 0 min 0 min 0 W/m 0,0 km/h (0 Bft) 100,00 %
06.10.2022 22:06 11,2 C 9,4 C 5,6 C 84 % 1030,0 hPa 0,0 l/m 0 min 0 min 0 W/m 0,0 km/h (0 Bft) 100,00 %
06.10.2022 22:08 11,2 C 9,4 C 5,6 C 84 % 1030,0 hPa 0,0 l/m 0 min 0 min 0 W/m 0,0 km/h (0 Bft) 100,00 %
06.10.2022 22:10 11,1 C 8,9 C 5,6 C 84 % 1030,1 hPa 0,0 l/m 0 min 0 min 0 W/m 0,0 km/h (0 Bft) 100,00 %
06.10.2022 22:12 11,1 C 8,9 C 5,6 C 84 % 1030,0 hPa 0,0 l/m 0 min 0 min 0 W/m 0,0 km/h (0 Bft) 100,00 %
06.10.2022 22:14 11,1 C 8,9 C 5,6 C 84 % 1030,1 hPa 0,0 l/m 0 min 0 min 0 W/m 0,0 km/h (0 Bft) 97,83 %
06.10.2022 22:16 11,0 C 8,9 C 5,6 C 84 % 1030,1 hPa 0,0 l/m 0 min 0 min 0 W/m 0,0 km/h (0 Bft) 100,00 %
06.10.2022 22:18 10,9 C 8,9 C 5,6 C 84 % 1030,1 hPa 0,0 l/m 0 min 0 min 0 W/m 0,0 km/h (0 Bft) 100,00 %
06.10.2022 22:20 10,9 C 8,9 C 5,6 C 84 % 1030,1 hPa 0,0 l/m 0 min 0 min 0 W/m 0,0 km/h (0 Bft) 100,00 %
06.10.2022 22:22 10,8 C 8,9 C 5,6 C 84 % 1030,1 hPa 0,0 l/m 0 min 0 min 0 W/m 0,0 km/h (0 Bft) 100,00 %
06.10.2022 22:24 10,8 C 8,9 C 5,6 C 84 % 1030,1 hPa 0,0 l/m 0 min 0 min 0 W/m 0,0 km/h (0 Bft) 100,00 %
06.10.2022 22:26 10,7 C 8,9 C 5,0 C 84 % 1030,1 hPa 0,0 l/m 0 min 0 min 0 W/m 0,0 km/h (0 Bft) 100,00 %
06.10.2022 22:28 10,7 C 8,9 C 5,6 C 85 % 1030,1 hPa 0,0 l/m 0 min 0 min 0 W/m 0,0 km/h (0 Bft) 97,87 %
06.10.2022 22:30 10,6 C 8,3 C 5,6 C 85 % 1030,2 hPa 0,0 l/m 0 min 0 min 0 W/m 0,0 km/h (0 Bft) 100,00 %
06.10.2022 22:32 10,6 C 8,3 C 5,0 C 85 % 1030,1 hPa 0,0 l/m 0 min 0 min 0 W/m 0,0 km/h (0 Bft) 95,74 %
06.10.2022 22:34 10,5 C 8,3 C 5,0 C 85 % 1030,1 hPa 0,0 l/m 0 min 0 min 0 W/m 0,0 km/h (0 Bft) 97,87 %
06.10.2022 22:36 10,4 C 8,3 C 5,0 C 85 % 1030,2 hPa 0,0 l/m 0 min 0 min 0 W/m 0,0 km/h (0 Bft) 98,28 %
06.10.2022 22:38 10,4 C 8,3 C 5,0 C 86 % 1030,1 hPa 0,0 l/m 0 min 0 min 0 W/m 0,0 km/h (0 Bft) 97,14 %
06.10.2022 22:40 10,3 C 8,3 C 5,0 C 86 % 1030,2 hPa 0,0 l/m 0 min 0 min 0 W/m 3,2 km/h (1 Bft) 97,87 %
06.10.2022 22:42 10,3 C 8,3 C 5,0 C 86 % 1030,1 hPa 0,0 l/m 0 min 0 min 0 W/m 0,0 km/h (0 Bft) 95,74 %
06.10.2022 22:44 10,2 C 8,3 C 5,0 C 86 % 1030,1 hPa 0,0 l/m 0 min 0 min 0 W/m 0,0 km/h (0 Bft) 95,74 %
06.10.2022 22:46 10,2 C 8,3 C 5,0 C 87 % 1030,1 hPa 0,0 l/m 0 min 0 min 0 W/m 0,0 km/h (0 Bft) 97,87 %
06.10.2022 22:48 10,1 C 8,3 C 5,0 C 87 % 1030,0 hPa 0,0 l/m 0 min 0 min 0 W/m 0,0 km/h (0 Bft) 95,74 %
06.10.2022 22:50 10,1 C 8,3 C 5,0 C 87 % 1030,1 hPa 0,0 l/m 0 min 0 min 0 W/m 3,2 km/h (1 Bft) 97,83 %
06.10.2022 22:52 10,1 C 8,9 C 5,0 C 87 % 1030,1 hPa 0,0 l/m 0 min 0 min 0 W/m 3,2 km/h (1 Bft) 97,87 %
06.10.2022 22:54 10,1 C 8,9 C 5,6 C 87 % 1030,1 hPa 0,0 l/m 0 min 0 min 0 W/m 3,2 km/h (1 Bft) 97,87 %
06.10.2022 22:56 10,1 C 8,9 C 5,6 C 87 % 1030,1 hPa 0,0 l/m 0 min 0 min 0 W/m 3,2 km/h (1 Bft) 97,87 %
06.10.2022 22:58 10,0 C 9,4 C 5,6 C 88 % 1030,1 hPa 0,0 l/m 0 min 0 min 0 W/m 3,2 km/h (1 Bft) 97,87 %
06.10.2022 23:00 10,0 C 9,4 C 5,6 C 88 % 1030,1 hPa 0,0 l/m 0 min 0 min 0 W/m 3,2 km/h (1 Bft) 100,00 %
06.10.2022 23:02 10,0 C 9,4 C 5,6 C 88 % 1030,0 hPa 0,0 l/m 0 min 0 min 0 W/m 3,2 km/h (1 Bft) 97,83 %
06.10.2022 23:04 10,0 C 9,4 C 5,6 C 88 % 1030,0 hPa 0,0 l/m 0 min 0 min 0 W/m 0,0 km/h (0 Bft) 100,00 %
06.10.2022 23:06 10,0 C 9,4 C 6,1 C 88 % 1030,0 hPa 0,0 l/m 0 min 0 min 0 W/m 0,0 km/h (0 Bft) 98,31 %
06.10.2022 23:08 10,0 C 9,4 C 6,1 C 88 % 1030,1 hPa 0,0 l/m 0 min 0 min 0 W/m 0,0 km/h (0 Bft) 97,14 %
06.10.2022 23:10 10,0 C 9,4 C 6,1 C 88 % 1030,1 hPa 0,0 l/m 0 min 0 min 0 W/m 0,0 km/h (0 Bft) 100,00 %
06.10.2022 23:12 10,0 C 9,4 C 6,1 C 88 % 1030,0 hPa 0,0 l/m 0 min 0 min 0 W/m 0,0 km/h (0 Bft) 95,65 %
06.10.2022 23:14 10,0 C 9,4 C 6,1 C 88 % 1030,0 hPa 0,0 l/m 0 min 0 min 0 W/m 0,0 km/h (0 Bft) 97,87 %
06.10.2022 23:16 10,0 C 9,4 C 6,1 C 88 % 1030,0 hPa 0,0 l/m 0 min 0 min 0 W/m 3,2 km/h (1 Bft) 95,74 %
06.10.2022 23:18 10,0 C 9,4 C 5,6 C 88 % 1029,9 hPa 0,0 l/m 0 min 0 min 0 W/m 0,0 km/h (0 Bft) 95,74 %
06.10.2022 23:20 10,0 C 9,4 C 6,1 C 88 % 1029,9 hPa 0,0 l/m 0 min 0 min 0 W/m 3,2 km/h (1 Bft) 93,62 %
06.10.2022 23:22 10,0 C 9,4 C 6,1 C 88 % 1029,9 hPa 0,0 l/m 0 min 0 min 0 W/m 0,0 km/h (0 Bft) 91,49 %
06.10.2022 23:24 10,0 C 9,4 C 6,1 C 88 % 1029,9 hPa 0,0 l/m 0 min 0 min 0 W/m 0,0 km/h (0 Bft) 95,65 %
06.10.2022 23:26 10,1 C 9,4 C 5,6 C 88 % 1029,9 hPa 0,0 l/m 0 min 0 min 0 W/m 0,0 km/h (0 Bft) 95,74 %
06.10.2022 23:28 10,0 C 9,4 C 5,6 C 88 % 1029,9 hPa 0,0 l/m 0 min 0 min 0 W/m 0,0 km/h (0 Bft) 95,74 %
06.10.2022 23:30 10,1 C 9,4 C 5,6 C 88 % 1029,8 hPa 0,0 l/m 0 min 0 min 0 W/m 3,2 km/h (1 Bft) 95,74 %
06.10.2022 23:32 10,1 C 9,4 C 5,6 C 88 % 1029,8 hPa 0,0 l/m 0 min 0 min 0 W/m 0,0 km/h (0 Bft) 95,74 %
06.10.2022 23:34 10,1 C 9,4 C 5,6 C 88 % 1029,8 hPa 0,0 l/m 0 min 0 min 0 W/m 0,0 km/h (0 Bft) 95,74 %
06.10.2022 23:36 10,1 C 9,4 C 5,6 C 88 % 1029,8 hPa 0,0 l/m 0 min 0 min 0 W/m 0,0 km/h (0 Bft) 94,23 %
06.10.2022 23:38 10,1 C 9,4 C 5,6 C 88 % 1029,8 hPa 0,0 l/m 0 min 0 min 0 W/m 0,0 km/h (0 Bft) 95,12 %
06.10.2022 23:40 10,1 C 9,4 C 5,6 C 88 % 1029,8 hPa 0,0 l/m 0 min 0 min 0 W/m 0,0 km/h (0 Bft) 95,74 %
06.10.2022 23:42 10,1 C 9,4 C 5,6 C 88 % 1029,8 hPa 0,0 l/m 0 min 0 min 0 W/m 3,2 km/h (1 Bft) 97,87 %
06.10.2022 23:44 10,1 C 9,4 C 5,6 C 88 % 1029,8 hPa 0,0 l/m 0 min 0 min 0 W/m 0,0 km/h (0 Bft) 95,74 %
06.10.2022 23:46 10,1 C 9,4 C 5,6 C 88 % 1029,7 hPa 0,0 l/m 0 min 0 min 0 W/m 0,0 km/h (0 Bft) 97,87 %
06.10.2022 23:48 10,1 C 9,4 C 5,6 C 88 % 1029,8 hPa 0,0 l/m 0 min 0 min 0 W/m 3,2 km/h (1 Bft) 98,11 %
06.10.2022 23:50 10,1 C 8,9 C 5,6 C 88 % 1029,8 hPa 0,0 l/m 0 min 0 min 0 W/m 0,0 km/h (0 Bft) 97,87 %
06.10.2022 23:52 10,1 C 8,9 C 5,6 C 88 % 1029,7 hPa 0,0 l/m 0 min 0 min 0 W/m 0,0 km/h (0 Bft) 97,87 %
06.10.2022 23:54 10,1 C 8,9 C 5,6 C 88 % 1029,7 hPa 0,0 l/m 0 min 0 min 0 W/m 0,0 km/h (0 Bft) 95,74 %
06.10.2022 23:56 10,0 C 8,9 C 5,6 C 88 % 1029,7 hPa 0,0 l/m 0 min 0 min 0 W/m 0,0 km/h (0 Bft) 97,83 %
06.10.2022 23:58 10,0 C 9,4 C 5,6 C 88 % 1029,7 hPa 0,0 l/m 0 min 0 min 0 W/m 3,2 km/h (1 Bft) 97,87 %
_ Min-Zeit 22:58 22:30 22:26 16:22 00:00 - - - - 07:56 18:38
Minimum _ 10,0 C 8,3 C 5,0 C 58 % 1019,5 hPa - - - - 0,0 km/h (0 Bft) 56,52 %
_ Max-Zeit 14:50 11:42 11:42 02:58 13:24 00:54 10:38 00:54 14:02 00:52 00:26
Maximum _ 18,3 C 25,0 C 19,4 C 95 % 1030,9 hPa 0,4 l/m 2 min 2 min 615 W/m 51,5 km/h
W-SW (7 Bft)
100,00 %
Durchschnitt _ 13,8 C 13,3 C 9,4 C 81 % 1028,0 hPa #1,0 l/m #4:42 h #22 min. 209 W/m 8,8 km/h (2 Bft) 97,52 %
© 2022 W. Hausmann